GFSSGP_925_temp_009.txt.gz
Temp
26 26 26 25 25 23 24 26 26 26 25 24 24 25 23 22 24 22 22 22 23 23 22 21 21 21 20 20 20 20 21 20 20 20 20 20 20 20 20 20 20 20 20 20 21 21 21 21 21
26 26 26 21 23 24 23 25 26 25 24 22 24 24 23 23 23 22 22 22 23 23 22 21 21 21 20 20 20 20 20 20 20 20 20 20 20 20 19 19 20 20 20 20 20 20 21 21 21
26 25 23 22 22 24 24 25 25 24 24 25 23 22 23 22 23 23 22 22 22 22 22 21 21 21 21 20 20 20 20 20 20 20 20 20 20 20 19 19 19 19 19 19 20 20 20 20 21
26 24 21 24 26 26 26 24 25 23 24 24 22 22 23 23 24 23 22 23 22 22 22 21 21 21 21 20 20 19 19 19 19 19 20 19 19 19 19 19 19 19 19 19 19 19 20 20 20
24 21 23 24 26 26 25 25 24 25 25 24 23 21 22 23 24 22 22 22 22 21 21 21 21 20 20 19 19 19 19 19 20 19 19 18 18 18 18 19 19 19 19 19 18 18 18 19 20
22 21 23 24 25 26 25 25 25 25 24 22 21 20 21 23 22 22 22 22 22 21 21 20 20 20 20 20 19 19 19 20 20 19 19 18 18 17 18 18 18 18 18 18 18 18 18 18 19
22 22 24 24 24 25 26 24 25 24 23 23 20 20 21 21 22 22 22 22 21 21 20 20 20 20 20 19 19 19 20 20 20 20 20 19 19 18 18 17 17 17 17 17 18 17 17 18 18
19 20 24 24 23 24 26 25 25 24 23 22 21 20 20 21 22 21 21 21 21 21 20 20 20 20 20 20 20 20 21 21 20 20 19 19 19 18 18 17 16 16 16 16 17 17 18 18 18
21 21 22 25 23 25 25 26 25 23 21 22 22 19 22 24 21 21 20 19 20 20 21 21 21 20 20 20 20 21 21 20 20 19 19 19 18 18 17 16 16 15 16 16 17 17 17 18 18
21 20 22 24 24 25 24 25 23 24 22 22 21 21 21 22 21 20 19 19 19 19 20 20 20 20 20 20 20 20 20 20 20 20 19 19 18 17 17 16 16 16 16 16 16 16 17 17 17
21 22 23 25 26 24 24 25 23 22 21 20 20 20 18 19 20 19 20 20 20 20 20 20 20 20 20 20 20 20 20 20 20 19 18 18 17 17 16 16 16 16 16 16 16 16 16 16 16
24 23 25 26 26 24 24 24 24 21 23 22 20 19 19 18 18 19 19 20 20 20 20 20 20 20 20 20 20 20 20 19 19 18 17 17 17 16 15 15 15 15 14 15 15 15 15 15 15
23 25 25 25 25 25 24 24 23 21 21 21 19 19 19 19 19 19 21 21 21 20 20 20 20 20 20 20 20 19 19 18 17 17 16 16 16 15 15 14 14 14 14 14 14 14 14 14 14
24 24 24 23 24 24 24 23 23 23 20 20 18 18 19 19 18 19 19 19 20 21 20 20 20 20 19 19 19 18 18 17 16 16 16 15 15 15 14 13 13 13 13 13 13 13 13 12 13
24 25 23 22 23 23 22 22 20 22 19 19 17 18 18 18 19 19 20 20 20 21 21 20 20 19 19 19 18 17 17 16 16 15 15 15 14 14 13 13 13 12 12 12 12 12 12 12 12
24 23 21 21 21 22 22 20 20 20 18 18 16 16 17 17 18 19 20 20 20 20 20 20 19 19 18 18 17 16 16 15 15 15 14 14 14 13 13 13 12 12 12 12 11 11 11 11 10
19 19 19 20 19 22 21 20 21 19 18 19 17 17 17 18 17 18 20 20 21 21 20 19 18 18 18 17 16 16 15 15 14 14 14 14 13 13 13 12 12 12 12 11 11 11 11 10 10
19 18 18 19 22 20 20 19 20 19 17 19 18 17 17 18 19 19 20 20 20 20 19 19 18 18 17 16 15 14 14 14 14 14 13 13 13 12 12 12 12 12 11 11 11 11 11 10 10
20 19 20 20 21 20 19 20 22 21 17 17 17 17 17 18 19 20 19 19 19 19 18 18 18 17 16 15 14 14 14 13 13 13 13 13 12 12 12 12 12 12 11 11 11 11 10 10 10
19 19 19 19 20 20 20 20 21 21 17 20 19 18 18 18 18 17 18 18 18 19 18 17 17 17 16 16 15 14 14 13 13 13 13 12 12 12 12 12 12 11 11 11 11 10 10 10 10
19 19 19 20 21 20 21 21 19 19 20 19 19 20 20 18 18 17 16 16 16 16 17 17 17 17 16 16 15 14 13 13 12 12 12 12 12 12 12 12 11 11 11 11 10 10 9 9 9
19 20 20 20 20 20 20 21 22 20 20 19 20 20 19 19 19 19 17 16 15 15 16 17 17 16 16 15 15 14 14 13 13 13 13 12 12 12 12 11 11 11 11 10 10 10 10 9 9
19 21 19 19 18 19 19 19 22 19 20 20 21 19 20 20 19 18 18 17 16 16 15 16 16 16 16 15 15 15 14 14 14 13 12 12 12 11 11 11 11 11 10 10 10 10 10 9 9
22 21 20 16 16 17 20 19 23 24 22 22 22 21 20 20 19 19 19 18 17 15 14 15 15 16 16 15 14 14 14 14 13 12 12 11 11 11 11 11 11 10 10 10 10 10 10 9 9
21 19 16 17 15 20 19 18 23 22 21 20 22 23 22 18 17 17 16 15 15 14 13 13 14 13 15 15 14 14 14 14 13 12 12 11 11 11 11 11 10 10 10 10 10 10 9 9 9
18 20 19 17 17 21 17 17 23 21 21 22 21 21 22 20 15 15 16 15 15 14 13 13 12 13 13 14 14 14 14 13 13 13 12 12 11 11 11 11 11 10 10 10 10 9 9 9 9
20 17 21 19 21 17 21 19 20 19 19 20 19 19 19 21 14 15 14 15 14 13 13 13 13 12 13 13 14 14 13 13 13 13 12 12 11 11 11 11 10 10 10 10 10 9 9 9 9
20 19 18 15 18 18 20 17 20 21 22 22 20 19 18 18 15 13 13 14 14 13 13 13 13 13 14 14 14 14 13 13 13 13 12 12 12 11 11 11 10 10 10 10 9 9 9 9 9
19 17 17 17 16 19 19 21 21 22 23 23 21 19 18 18 16 13 13 13 13 13 13 13 12 12 12 12 13 13 13 13 13 12 12 12 11 11 11 10 10 10 10 9 9 9 9 9 8
19 19 16 17 17 15 19 20 23 21 20 20 19 19 18 16 16 13 12 11 12 12 13 12 12 12 12 12 12 13 13 13 12 12 12 12 11 11 11 10 10 10 9 9 9 9 8 8 8

GFSSGP_925_temp_012.txt.gz
Temp
25 25 25 25 24 22 24 25 25 25 25 24 24 24 23 22 24 23 21 22 23 22 22 21 21 21 20 20 20 21 21 21 20 20 20 20 20 20 20 20 20 20 20 20 20 20 21 21 21
26 26 25 20 23 23 23 24 24 24 24 22 23 23 23 22 22 21 21 22 22 23 22 21 21 21 20 20 20 20 20 20 20 20 20 20 19 19 19 19 19 20 20 20 20 20 20 20 20
26 25 23 22 21 24 24 24 24 23 22 24 23 22 22 22 22 21 22 22 22 22 22 21 21 21 20 20 20 19 19 19 19 20 19 19 19 19 19 19 19 19 19 19 20 20 20 20 20
25 23 21 24 26 26 25 24 23 22 23 23 22 22 22 23 23 23 22 22 22 22 22 21 20 20 20 20 19 19 19 19 19 19 18 19 18 19 19 18 19 18 18 18 18 19 20 20 20
24 20 23 24 25 25 24 24 22 22 24 23 22 21 22 23 23 22 22 22 23 22 21 21 20 20 19 19 19 19 19 19 18 18 18 18 18 18 18 18 18 18 18 18 18 18 18 19 20
22 21 23 24 25 25 24 24 23 24 23 22 23 20 20 22 21 22 22 22 22 22 20 20 20 20 19 19 19 18 18 19 19 19 19 18 17 17 17 17 17 17 17 17 17 16 18 19 18
23 21 24 24 24 25 26 22 23 23 22 23 20 20 20 20 21 22 22 21 21 20 20 20 19 20 19 19 18 19 20 20 20 20 19 19 19 17 17 16 16 16 16 16 16 17 18 18 18
18 20 23 23 23 25 25 24 25 23 23 20 20 21 21 20 21 20 20 20 20 20 20 19 19 20 20 19 19 20 21 21 21 20 19 19 19 18 17 16 15 15 15 15 16 17 18 18 18
20 21 21 24 22 25 24 25 24 22 21 21 20 20 21 23 21 19 19 19 19 20 19 19 20 20 20 20 19 20 21 21 21 20 19 19 19 18 17 15 14 15 14 15 16 17 17 17 17
20 19 22 23 22 24 24 24 22 23 22 21 21 20 20 20 19 18 18 17 18 19 19 19 20 20 20 20 20 20 20 20 20 20 19 19 18 17 17 16 16 16 16 16 16 16 16 16 17
20 21 22 24 24 24 25 23 22 22 21 21 21 20 17 17 17 18 18 18 19 20 20 20 20 20 20 20 20 20 20 20 20 19 19 19 18 17 16 16 16 16 15 15 15 15 15 15 16
23 22 23 24 25 23 24 23 22 20 24 22 20 19 17 16 17 17 17 18 19 19 20 20 20 20 20 20 20 20 20 20 19 19 18 18 17 17 16 16 15 15 15 15 14 14 14 14 14
22 23 23 23 23 23 23 22 22 21 20 21 20 18 17 18 18 19 19 18 19 19 20 20 20 20 20 20 20 20 19 19 19 18 17 17 17 16 15 15 14 14 14 14 14 14 13 13 13
23 22 22 23 23 23 23 23 22 22 21 20 18 17 17 19 18 18 18 18 18 19 19 20 20 20 20 20 20 20 19 19 18 17 17 16 16 16 15 14 14 13 13 13 12 13 12 12 12
22 22 21 21 22 22 21 21 20 21 20 19 17 16 16 18 18 18 19 19 20 20 20 20 20 19 19 19 19 19 19 18 17 17 16 15 15 15 14 14 13 13 12 12 12 12 12 12 11
22 21 20 21 20 22 22 22 21 20 18 19 17 15 16 17 17 18 19 19 19 19 20 19 19 19 19 19 18 18 18 17 17 16 15 15 14 14 13 13 13 12 12 12 12 12 11 11 11
17 18 18 19 19 21 20 19 20 20 17 18 17 16 16 17 17 18 19 20 19 20 20 19 19 19 18 18 17 17 17 17 16 15 15 14 13 13 13 13 12 12 12 12 11 11 11 10 10
18 18 17 19 21 19 18 18 20 18 18 17 17 16 15 16 17 19 19 20 20 20 20 19 18 18 18 17 16 16 15 15 15 14 14 14 13 13 13 12 12 12 12 11 11 11 10 10 10
19 18 18 18 20 19 18 19 20 21 17 17 17 16 16 17 19 19 19 19 19 19 18 19 18 17 17 16 15 14 14 14 14 14 13 13 13 12 12 12 12 12 11 11 11 11 10 10 9
18 17 18 18 19 18 18 19 21 21 18 20 19 19 18 18 18 16 18 18 17 17 18 17 18 18 17 17 16 15 15 14 14 14 13 13 12 12 12 12 12 11 11 11 11 10 10 9 9
17 17 18 18 18 18 18 20 21 19 20 17 18 20 21 19 19 18 16 16 16 16 16 16 18 18 17 16 16 15 14 14 13 12 13 12 12 12 12 12 12 11 11 11 10 10 10 9 9
17 18 19 18 18 19 20 21 23 21 20 18 18 18 19 19 19 19 17 16 16 17 16 17 17 16 16 16 15 15 15 13 13 14 13 13 12 12 12 12 11 11 11 10 10 10 9 9 9
17 19 18 18 17 17 17 17 23 21 21 19 19 18 18 19 18 18 17 18 17 16 15 16 15 15 15 16 16 15 15 15 15 14 13 12 12 12 11 11 11 11 10 10 10 9 9 9 9
20 20 19 14 15 16 19 18 22 23 20 22 22 20 20 19 17 17 18 18 17 16 15 14 14 14 14 14 15 15 15 15 14 13 12 12 11 11 11 11 11 11 10 10 10 9 9 9 9
19 18 15 16 14 18 19 18 23 21 21 21 21 21 22 19 16 15 15 15 16 15 14 13 13 12 12 14 14 14 15 15 14 14 13 12 11 11 11 11 11 11 10 10 10 9 9 9 9
18 16 15 17 15 17 17 17 22 21 19 19 19 19 18 18 18 15 15 14 15 14 13 13 12 12 12 13 13 14 15 15 14 14 13 13 12 12 11 11 11 10 10 10 10 9 9 9 9
18 17 18 17 19 17 19 19 21 21 19 18 18 18 18 19 18 15 14 13 14 13 13 12 12 12 12 12 12 13 14 14 14 14 13 13 12 12 11 11 11 10 10 10 9 9 9 9 9
18 18 17 15 16 17 18 17 19 20 21 18 15 16 16 17 19 17 13 12 13 13 13 12 12 12 11 12 12 13 14 14 14 14 13 12 12 11 11 11 11 10 10 10 9 9 9 8 8
16 16 16 16 18 16 15 17 20 12 13 14 15 16 16 15 16 16 16 12 13 13 12 12 12 12 11 11 12 12 12 13 13 13 13 12 12 12 11 11 10 10 10 10 9 9 9 8 8
15 15 15 12 13 11 11 13 14 14 15 16 16 15 15 15 14 15 13 11 11 12 12 12 12 11 11 11 11 11 13 13 13 13 13 12 12 12 11 11 10 10 10 9 9 9 8 8 7

GFSSGP_925_temp_015.txt.gz
Temp
25 25 25 24 28 27 26 26 26 26 26 26 26 26 26 25 26 27 22 22 23 23 22 21 21 21 21 20 20 20 21 21 20 20 19 20 20 20 21 21 21 20 20 20 20 20 20 20 20
25 25 25 23 28 28 28 26 26 26 25 24 25 25 25 26 24 23 22 22 22 22 21 21 21 21 21 21 20 20 20 20 19 19 19 19 19 19 19 19 19 20 20 20 20 20 20 20 20
25 25 26 26 25 28 28 26 26 26 24 25 25 24 24 25 23 23 21 21 21 21 22 21 21 21 21 20 19 19 19 19 19 19 19 19 19 19 19 19 18 18 18 19 20 20 20 20 20
26 24 25 28 28 27 27 27 26 24 24 24 24 25 23 23 23 22 21 21 21 22 21 20 21 21 20 19 19 19 19 19 19 18 19 18 18 18 18 18 18 18 18 18 18 19 19 20 20
24 24 26 26 27 27 26 26 25 25 26 25 24 25 24 23 23 22 21 21 22 22 21 20 20 20 20 19 19 19 19 18 18 18 18 18 18 18 18 18 17 17 17 17 17 18 18 19 19
24 24 27 27 26 26 26 25 25 25 25 24 24 23 24 21 21 21 22 22 22 22 20 20 20 19 19 19 19 19 18 19 19 19 18 17 17 17 17 17 17 16 16 16 17 18 18 17 18
25 25 26 26 26 26 27 25 26 26 25 25 24 25 24 21 21 21 21 21 22 21 20 20 20 19 19 18 18 19 20 20 20 20 19 19 18 17 16 16 16 16 16 16 16 18 18 18 18
21 24 24 24 26 27 26 25 26 26 26 22 24 26 26 23 20 20 20 20 20 19 19 19 19 19 19 19 19 20 20 21 21 20 19 19 18 17 16 15 15 15 15 15 16 17 18 18 18
21 24 25 25 24 26 24 25 24 23 24 22 23 23 22 21 20 19 18 18 18 19 19 19 19 19 19 19 18 20 20 20 20 20 19 19 18 18 16 14 14 14 14 15 16 17 17 17 18
23 23 24 24 24 25 25 25 25 25 23 23 23 22 20 19 19 19 18 18 19 19 19 19 19 19 19 20 20 20 20 20 20 20 19 19 18 17 17 15 16 15 16 16 16 16 16 17 17
21 23 22 24 24 24 25 24 24 24 23 25 25 25 20 19 19 20 20 19 19 18 18 18 19 20 20 20 20 20 20 20 20 19 19 19 18 17 17 16 16 16 15 16 16 16 16 16 16
23 22 22 24 24 24 24 24 24 23 28 25 24 22 20 20 19 20 20 19 18 17 18 18 19 20 20 20 20 20 20 20 19 19 19 19 18 17 16 16 15 15 15 15 15 15 14 14 14
22 22 23 23 22 23 23 23 24 23 24 23 21 20 21 21 21 20 20 20 19 18 17 19 19 19 20 20 20 20 20 20 19 19 19 18 17 17 16 15 15 15 14 14 14 14 13 13 13
21 22 22 22 23 22 23 23 22 23 23 22 22 22 21 21 21 20 19 19 18 18 18 19 19 20 20 20 20 20 19 19 19 19 18 18 17 16 15 15 14 14 14 14 13 13 12 12 11
21 22 21 22 22 23 22 23 22 24 22 24 22 23 21 20 20 20 19 19 19 18 18 19 19 19 19 20 20 20 19 19 19 18 18 17 16 16 15 14 14 13 13 13 13 12 12 11 11
21 21 22 22 21 22 24 24 25 22 22 23 23 23 20 21 20 20 20 19 19 18 17 19 19 19 19 19 19 19 19 18 18 18 17 17 16 15 15 14 13 13 12 12 12 12 11 10 11
19 22 20 20 21 21 22 22 22 20 20 21 22 22 20 20 20 20 19 19 19 18 19 18 19 19 19 19 19 18 18 18 18 17 17 16 15 15 14 14 13 13 12 12 11 11 11 10 10
21 20 19 19 21 19 20 20 21 22 20 22 23 23 21 21 21 22 19 19 19 18 18 18 18 18 18 18 17 17 17 17 16 16 16 16 15 14 14 13 12 12 12 12 11 11 11 10 9
19 19 19 21 21 20 22 22 22 23 20 20 21 22 22 22 23 21 20 19 18 17 17 17 17 17 17 16 15 14 15 15 15 15 15 15 14 13 13 13 12 12 12 11 11 11 10 10 9
18 19 19 20 20 19 20 21 22 22 23 23 22 23 23 24 23 21 19 18 18 18 17 16 16 16 17 17 15 14 13 14 15 15 14 14 14 13 13 12 12 12 12 11 11 11 10 9 9
18 18 19 20 20 19 19 22 23 22 22 22 21 22 23 23 23 23 20 18 17 17 16 16 16 16 17 16 14 14 13 13 13 13 13 13 13 13 12 12 12 12 11 11 11 10 10 10 9
18 19 20 19 19 20 21 22 24 25 25 21 21 21 22 22 22 21 21 18 17 17 17 16 16 15 15 15 14 14 14 13 12 13 13 13 13 12 12 12 12 12 11 11 10 10 10 9 9
20 19 18 18 18 18 20 20 26 24 24 25 26 24 21 21 22 22 21 19 18 18 17 16 15 15 14 14 14 14 14 14 13 13 13 13 12 12 12 12 11 11 11 11 10 10 10 9 9
19 19 18 15 17 18 21 21 24 25 24 23 24 24 23 22 21 20 20 19 18 17 16 15 14 14 13 13 13 14 13 13 14 12 12 12 12 12 11 11 11 11 11 11 10 10 9 9 9
19 18 18 19 17 19 19 21 24 24 25 23 23 21 18 19 19 19 18 19 18 17 15 14 14 14 13 12 12 13 13 13 15 15 13 11 11 11 11 11 11 11 11 10 10 10 9 9 9
18 19 19 18 19 21 20 20 23 22 20 17 17 17 17 18 18 18 18 18 17 16 15 14 14 13 12 11 12 12 13 13 13 15 14 13 12 12 12 11 11 11 10 10 10 9 9 9 9
18 18 18 17 19 18 20 21 22 24 19 16 17 18 17 17 17 17 17 17 17 15 15 14 13 13 12 11 12 12 12 12 13 14 15 14 13 13 12 11 11 10 10 10 10 9 9 9 9
16 16 16 16 16 16 19 20 20 21 15 16 17 17 17 16 16 15 16 16 16 14 13 13 13 13 12 11 12 11 11 12 13 14 14 14 13 12 12 11 11 10 10 10 10 9 9 9 9
15 15 15 15 16 14 15 17 14 15 15 16 17 17 16 15 14 14 15 15 15 13 12 12 12 12 12 11 11 11 10 11 12 13 14 14 13 12 11 11 11 10 10 10 9 9 9 9 8
14 13 13 10 11 11 9 9 15 15 16 16 15 16 16 16 15 14 15 14 14 14 12 11 12 12 12 11 11 11 10 11 11 12 14 13 13 12 12 11 11 10 10 10 9 9 9 8 8

GFSSGP_925_temp_021.txt.gz
Temp
24 26 28 28 30 32 31 32 34 33 33 34 34 34 33 33 32 30 27 27 28 26 25 22 21 22 21 21 21 20 21 21 21 21 20 20 21 21 21 20 20 20 20 20 20 20 20 20 20
26 26 28 31 31 30 29 34 33 33 34 34 33 33 33 33 33 29 28 27 27 27 26 24 22 22 21 21 20 20 21 20 20 19 19 19 19 19 19 19 19 20 20 19 20 20 20 20 20
26 27 30 31 33 32 32 34 34 34 33 33 33 33 33 33 32 31 29 27 27 27 26 24 22 22 21 21 20 20 20 19 19 19 19 19 19 19 19 18 19 19 18 20 20 20 20 20 20
28 30 32 32 33 34 34 35 34 33 33 33 34 33 33 32 32 31 28 27 27 27 26 23 22 22 21 21 20 20 19 19 19 19 19 19 18 18 18 18 18 18 18 19 19 19 19 20 20
29 32 32 33 33 35 35 34 34 33 33 33 33 33 33 31 30 30 28 28 28 27 26 23 22 21 21 20 19 19 19 19 19 19 18 18 18 18 18 17 17 17 17 17 17 18 18 19 20
31 32 32 33 34 35 35 35 34 34 35 34 32 33 33 31 29 29 28 28 28 27 26 24 21 20 20 20 19 19 19 19 19 19 19 18 18 17 17 17 17 17 16 17 17 17 18 19 19
30 32 32 33 33 34 35 35 34 34 34 34 34 33 34 31 29 29 28 28 28 27 26 26 23 20 20 19 19 19 18 19 20 20 19 18 17 17 17 16 16 16 16 18 18 18 19 19 19
30 31 32 33 33 33 35 34 34 34 34 34 34 33 34 33 29 29 29 29 28 28 27 27 25 21 21 20 18 18 18 20 20 20 20 18 17 17 17 17 16 15 16 18 18 18 19 19 19
30 30 31 32 33 33 35 33 35 34 33 34 34 33 33 32 30 29 29 29 28 28 27 27 27 24 23 22 19 18 18 19 21 20 20 20 19 19 18 17 15 15 17 18 18 18 18 19 19
30 31 32 33 32 32 33 33 33 33 33 34 34 34 31 30 30 30 30 29 29 28 27 27 27 26 25 24 21 20 20 19 19 19 19 21 20 19 18 16 17 17 17 18 18 18 18 19 19
31 30 33 31 31 31 31 32 33 32 31 33 34 34 34 30 30 30 30 30 30 28 27 27 27 27 25 24 23 23 22 22 22 21 21 21 19 18 19 16 16 16 17 18 18 18 18 18 18
28 31 31 30 30 29 30 31 31 32 32 33 34 33 33 32 31 30 31 31 30 29 27 26 27 26 26 25 23 24 23 22 22 21 21 21 20 20 19 19 18 17 18 18 18 18 17 17 18
29 31 31 30 30 29 30 29 30 30 32 33 33 33 31 33 32 31 31 31 30 29 28 27 25 26 26 25 23 23 23 22 22 21 21 21 20 20 20 19 18 18 18 18 18 18 18 18 18
30 29 29 30 30 30 30 30 30 31 33 32 32 32 33 32 32 31 31 30 31 30 29 27 25 26 26 25 24 23 23 22 23 21 20 20 20 20 19 19 18 18 18 18 18 18 18 18 18
28 28 30 31 32 30 30 29 30 32 33 32 33 34 33 33 32 32 31 31 31 31 30 29 26 25 25 25 24 22 22 22 22 20 20 20 20 20 19 19 19 18 18 18 17 18 17 17 17
28 29 29 31 30 30 28 29 32 33 32 32 32 33 34 33 34 33 32 31 31 30 30 29 27 25 25 25 24 22 22 21 21 20 20 19 19 19 19 19 18 18 17 17 17 17 17 17 17
31 30 30 31 30 29 28 28 31 32 31 30 31 32 32 33 34 33 33 32 31 31 30 30 28 26 25 25 24 23 22 21 20 20 20 19 18 18 18 18 18 17 16 16 16 16 17 17 17
29 29 30 30 31 30 29 29 30 31 31 31 31 32 32 33 33 34 33 32 31 30 30 29 29 27 25 24 24 23 22 21 20 20 20 19 17 17 18 17 17 16 16 16 16 16 16 16 16
28 27 28 29 30 29 28 28 29 30 31 31 31 32 32 32 33 32 32 33 32 30 29 29 28 28 26 24 24 23 22 21 20 20 20 19 17 17 17 17 16 16 16 16 15 16 16 15 15
26 27 27 29 30 28 28 28 29 30 31 31 31 31 31 31 31 28 27 27 26 29 28 28 28 27 27 24 23 23 22 21 20 19 19 18 17 17 16 16 16 15 15 15 15 15 15 16 15
27 27 27 27 27 27 28 29 31 33 33 31 29 27 27 26 26 25 25 24 24 24 24 25 26 27 26 25 23 22 22 21 20 19 18 18 17 16 16 16 16 15 15 15 14 14 14 15 15
26 26 25 25 25 26 28 26 29 31 31 27 26 25 24 24 24 23 23 22 22 22 21 21 22 24 25 25 23 22 21 21 20 19 17 17 17 16 15 16 16 16 15 15 14 14 14 14 15
24 24 24 24 25 25 26 26 31 30 29 27 24 23 23 23 23 22 22 21 21 20 20 20 20 21 23 24 24 22 20 21 20 19 17 17 16 16 15 16 15 15 15 15 15 14 14 14 14
24 24 26 26 25 24 28 28 29 29 27 24 24 23 23 22 21 22 21 21 20 20 19 20 20 20 20 21 23 22 20 20 20 19 18 17 16 16 15 15 15 15 15 15 14 14 14 14 14
24 24 24 26 24 26 28 26 28 29 24 22 22 22 22 21 21 20 20 20 20 20 19 20 19 19 19 20 21 22 20 19 20 19 18 17 16 15 15 15 15 15 14 14 14 13 13 13 13
22 22 22 22 25 26 25 24 28 28 25 23 23 22 22 20 19 19 19 19 19 19 19 19 19 19 19 19 20 20 21 19 18 19 19 18 16 15 15 15 15 14 14 13 13 13 13 13 13
23 22 20 20 22 21 24 26 28 28 23 21 20 20 20 20 18 18 18 18 18 18 18 18 18 19 18 18 19 19 20 20 18 18 20 18 17 16 15 15 14 15 14 13 13 12 12 12 12
21 20 19 20 19 21 24 23 23 21 19 19 19 19 20 19 18 18 18 18 17 18 17 17 17 18 18 18 18 18 19 19 18 18 19 18 17 16 15 14 14 14 14 13 13 12 12 12 12
20 19 19 19 18 18 18 19 23 19 18 18 18 19 19 18 17 17 18 17 17 17 17 17 17 17 17 17 16 17 18 18 18 18 18 18 17 17 15 14 14 14 14 13 13 12 12 12 12
18 18 17 15 15 16 15 15 19 18 18 18 18 18 18 17 17 17 17 17 17 17 17 16 16 16 16 16 16 16 17 17 17 18 18 18 17 16 15 14 14 13 13 13 13 12 13 12 12

GFSSGP_925_temp_024.txt.gz
Temp
25 27 28 28 26 27 28 26 34 32 33 34 34 33 32 32 31 26 27 28 27 26 23 22 22 21 21 21 20 21 21 21 21 20 20 20 20 21 21 20 20 20 20 20 20 20 20 21 21
26 27 28 27 28 28 28 30 32 33 33 34 33 33 33 31 31 27 27 28 27 26 24 22 22 21 20 20 20 20 21 21 20 20 19 19 19 19 19 19 19 19 19 20 20 20 20 21 21
26 28 27 27 30 29 27 29 33 33 34 34 34 33 33 31 32 28 28 28 27 27 26 23 22 21 21 20 20 20 21 20 19 19 19 19 19 18 18 19 18 18 19 19 19 19 20 20 21
28 28 28 29 30 31 25 34 34 34 33 34 33 32 32 32 32 31 28 28 28 27 25 24 23 22 21 20 20 20 20 19 19 19 19 19 18 18 18 18 18 17 18 18 19 19 19 20 20
28 27 29 30 31 34 35 34 34 33 34 33 33 32 31 31 31 29 28 28 28 27 25 24 22 21 21 21 20 19 20 19 18 19 19 18 18 18 17 17 17 17 17 17 17 18 19 20 20
27 29 29 29 31 33 34 35 34 34 34 34 33 32 31 30 30 29 29 28 28 27 25 23 22 21 21 20 19 19 19 19 19 19 19 18 18 17 17 17 17 16 16 17 17 18 19 19 19
28 28 28 29 30 32 33 34 33 33 32 33 34 32 31 29 30 29 29 29 29 28 26 23 22 20 20 20 19 19 18 19 19 19 19 18 17 17 17 16 16 16 17 18 18 18 19 19 18
27 28 29 29 30 31 34 34 34 33 32 34 34 32 30 30 30 29 29 29 29 28 27 25 23 21 20 19 19 19 18 18 19 20 20 18 19 18 17 17 16 17 18 19 18 18 19 19 19
30 27 27 29 30 30 32 32 33 34 33 32 33 32 32 31 30 30 30 29 29 28 28 27 24 22 21 20 19 18 18 18 19 20 21 20 19 18 18 17 18 19 19 19 19 19 19 19 19
28 27 29 31 31 29 30 30 31 31 31 31 31 33 32 31 30 30 30 29 29 29 28 28 26 23 23 22 20 19 18 18 20 20 21 20 20 19 18 19 18 19 19 19 19 18 19 19 19
29 27 30 30 30 30 29 29 31 30 28 30 30 31 32 30 30 30 30 30 30 29 28 28 28 25 24 24 22 20 19 19 20 20 21 21 20 20 19 19 18 18 18 18 18 18 18 18 19
28 29 30 30 30 29 28 29 28 28 28 30 30 31 31 28 28 29 30 31 31 30 29 28 28 28 26 25 23 22 21 21 21 21 21 21 20 20 19 19 18 18 18 18 18 18 18 18 18
29 29 30 30 29 29 29 27 28 28 29 30 30 30 30 29 30 31 31 31 31 31 29 28 27 27 27 25 24 23 23 22 22 22 21 21 20 20 20 19 19 18 18 18 18 18 18 18 18
29 28 28 28 29 29 29 28 28 29 30 30 30 30 29 29 29 31 31 31 31 31 30 28 27 27 27 26 25 24 24 23 23 22 21 21 20 20 20 19 18 18 18 18 18 18 18 18 18
28 26 27 28 29 29 28 27 27 29 30 30 30 30 29 29 32 30 32 31 31 31 31 29 28 26 26 26 25 24 23 23 23 22 21 21 21 20 20 19 19 18 18 18 18 18 17 17 17
28 27 26 31 30 27 27 25 27 30 30 29 29 28 28 28 30 33 33 32 31 31 31 31 29 27 26 26 25 24 23 23 22 22 21 20 20 20 20 19 19 18 18 18 17 17 17 17 17
27 27 28 29 30 29 28 25 28 29 29 28 28 28 28 28 30 33 30 31 32 31 31 31 30 27 26 25 26 24 23 22 22 21 20 20 20 20 19 19 19 18 18 17 17 17 17 17 17
26 26 27 26 28 28 27 26 28 28 28 27 28 28 28 29 25 25 23 24 25 26 31 31 31 28 26 25 25 25 23 22 21 21 20 20 19 19 19 19 18 18 17 16 16 16 16 16 17
26 26 25 27 29 27 26 26 27 28 27 27 27 25 24 24 24 23 22 22 22 22 22 23 22 28 28 25 25 24 23 22 21 20 20 20 19 19 18 18 18 17 17 16 16 16 16 16 16
25 25 25 27 28 26 25 25 26 27 26 24 23 22 22 22 22 22 22 21 21 20 20 20 21 21 22 25 25 24 24 23 21 20 20 20 19 18 18 18 17 17 16 16 16 16 16 15 15
26 25 25 24 25 25 25 26 27 25 24 23 22 21 21 20 20 20 21 20 20 20 19 19 20 20 20 21 23 24 23 23 22 21 20 20 19 18 17 17 17 16 16 16 15 15 15 15 15
23 25 24 24 23 22 25 21 24 24 23 22 21 20 20 19 20 20 19 19 19 20 20 19 19 20 20 19 19 21 22 21 21 20 20 19 19 18 17 17 16 16 16 15 15 15 15 15 14
23 24 23 23 22 22 24 22 26 25 22 21 21 21 20 19 18 18 18 19 19 19 19 19 19 19 19 19 19 19 20 21 21 20 19 19 18 17 17 16 16 16 15 15 15 14 14 14 14
24 23 23 23 22 21 24 24 25 24 21 20 20 20 20 19 17 17 18 18 18 18 19 18 18 18 19 19 19 19 19 20 20 20 19 18 17 17 16 16 16 16 15 15 15 14 14 14 14
22 21 20 23 21 21 24 23 25 21 21 19 19 19 18 18 17 17 17 17 17 17 17 18 18 18 18 18 19 18 19 19 20 20 19 18 16 16 16 16 16 15 15 15 15 14 14 14 14
20 21 20 20 21 20 22 21 23 21 19 19 18 18 18 17 16 16 16 17 17 17 17 17 17 17 17 17 18 18 18 18 19 19 19 18 16 16 16 16 15 15 15 15 15 14 14 14 13
21 20 19 18 20 19 20 24 22 20 18 18 17 18 17 17 16 16 16 17 17 17 17 17 17 17 16 16 17 17 16 17 18 19 19 19 18 16 15 15 15 15 15 15 14 14 13 13 13
20 20 18 18 17 18 21 20 20 17 16 17 17 17 17 17 16 16 16 17 16 16 17 17 17 16 16 16 16 15 16 16 16 18 18 18 18 17 15 15 15 15 14 14 14 13 13 13 12
18 18 18 18 17 16 15 17 19 16 16 16 17 17 17 16 15 15 16 16 16 16 16 16 15 16 16 16 15 15 14 15 15 17 18 18 18 17 16 15 14 15 14 13 13 13 12 12 12
17 17 18 15 15 14 12 13 17 16 16 17 17 17 16 15 15 15 16 16 16 16 15 15 15 15 16 15 14 13 13 14 14 16 16 17 18 17 16 15 14 14 14 13 13 12 12 12 12

GFSSGP_925_temp_030.txt.gz
Temp
26 27 27 25 24 24 26 28 28 29 30 30 30 29 29 28 28 26 26 25 24 23 22 21 21 21 20 20 20 21 21 21 21 21 20 20 21 20 20 20 20 20 20 20 20 20 21 21 21
27 26 26 22 23 24 25 27 29 29 30 29 30 27 29 28 26 24 24 24 25 24 22 22 21 21 20 20 20 20 21 21 20 20 20 20 20 19 19 20 19 20 20 20 20 21 21 21 21
27 26 23 22 23 26 27 28 29 30 30 31 30 30 27 28 26 25 27 25 25 24 23 22 21 21 20 20 20 20 21 20 19 19 19 19 19 19 18 18 19 19 20 20 20 20 21 21 21
27 24 22 24 26 27 28 29 30 30 31 31 29 30 29 28 27 27 26 26 25 24 24 23 22 21 21 20 20 20 20 19 19 19 18 18 18 18 18 17 18 18 18 18 19 19 20 20 21
26 21 23 24 26 28 27 29 30 30 30 30 30 29 28 28 28 28 26 25 25 24 24 23 23 21 20 20 19 19 19 19 19 18 18 18 18 18 17 17 17 17 18 18 18 18 20 20 20
22 21 23 24 26 26 27 27 29 29 29 30 30 28 27 27 28 27 26 26 25 25 23 23 22 22 21 20 19 19 19 18 18 18 18 18 18 18 17 17 17 17 17 17 17 18 19 20 20
23 22 24 26 26 26 29 26 28 28 28 30 30 29 26 25 28 27 27 26 25 25 24 23 22 22 22 21 19 19 19 18 18 18 18 18 17 17 17 17 16 16 16 17 17 17 18 19 19
21 21 25 25 25 26 27 27 29 28 28 28 30 27 26 26 27 27 27 26 25 24 23 23 23 22 22 21 20 19 19 18 18 18 18 17 17 17 17 16 16 16 17 18 19 19 18 18 19
22 21 22 25 27 27 27 27 27 27 27 26 28 29 28 29 27 26 26 24 23 23 24 23 23 23 23 22 20 20 18 18 18 18 17 17 18 17 17 18 16 16 19 19 19 19 19 18 18
22 20 23 24 27 27 27 27 26 26 23 25 26 26 28 28 26 25 25 24 23 22 23 24 24 24 23 21 20 19 19 18 18 18 18 18 19 19 18 19 17 18 19 19 19 19 19 19 18
23 22 23 26 27 26 27 26 27 26 24 24 26 26 26 26 25 25 25 26 25 25 24 24 24 24 23 22 21 20 19 19 19 19 19 18 18 18 18 19 19 19 18 18 18 19 19 19 18
25 24 25 26 26 25 26 26 25 25 25 24 24 24 25 25 23 24 25 27 27 25 25 25 24 24 23 22 22 21 20 20 20 20 19 19 18 18 18 19 19 19 19 18 18 18 18 18 18
25 25 25 25 23 23 25 24 25 24 24 22 23 23 21 20 21 21 22 24 24 27 26 26 25 24 23 22 22 22 21 21 22 21 21 20 19 19 18 19 19 19 18 18 18 18 18 18 18
24 24 23 23 23 24 25 24 26 25 24 23 25 19 17 17 18 18 18 17 20 23 24 24 23 25 23 23 22 22 22 22 22 22 22 21 20 20 19 19 19 19 18 18 18 18 18 18 18
24 23 22 24 25 26 24 25 25 24 25 25 20 16 17 18 18 18 17 17 17 18 20 22 22 21 20 24 24 22 22 22 22 22 22 22 21 21 20 20 20 19 18 18 18 18 18 18 18
23 22 22 24 23 26 26 22 24 23 22 21 17 16 17 17 17 17 17 17 17 18 18 19 20 21 22 21 19 18 19 22 22 22 22 22 22 21 20 20 20 19 18 18 18 17 17 17 17
19 22 23 22 23 23 25 22 22 21 21 17 16 16 17 16 17 17 17 17 17 18 18 19 19 20 19 19 20 20 19 19 21 22 22 22 22 21 21 21 21 20 19 18 18 17 17 17 17
22 21 22 22 23 22 22 20 17 18 17 16 14 13 15 15 15 16 17 17 17 17 18 18 18 18 18 19 19 20 20 20 20 20 22 22 21 21 21 21 21 20 19 18 17 17 17 17 17
22 22 20 20 23 21 22 17 17 17 16 15 14 14 14 14 15 16 16 17 16 17 17 17 18 18 18 18 17 17 18 18 19 20 19 20 21 21 21 21 20 19 19 19 18 17 17 16 16
22 21 20 20 21 22 20 17 17 17 16 15 14 13 14 14 13 15 16 16 16 17 17 17 17 17 17 17 17 16 17 17 18 18 19 19 20 21 21 21 20 20 19 18 18 17 16 16 15
21 21 21 20 19 20 20 17 17 17 16 16 14 14 14 14 13 13 15 16 16 16 16 17 17 17 16 16 17 17 16 16 17 17 17 18 18 19 21 20 20 20 19 18 18 17 17 16 15
20 21 21 20 18 18 20 16 16 16 15 14 13 12 13 13 13 13 14 15 16 16 16 16 16 17 16 16 16 16 15 15 15 15 15 16 17 17 18 19 20 20 19 18 18 18 17 16 15
20 20 20 19 17 19 18 16 16 15 14 14 14 14 14 14 13 13 14 15 16 16 16 16 16 16 16 16 16 16 16 15 15 15 15 15 15 16 15 17 18 19 19 19 18 17 17 16 15
20 19 17 15 15 15 17 17 15 14 15 15 14 14 14 14 14 14 15 16 15 16 16 16 15 15 15 15 15 15 15 16 15 14 14 14 14 15 15 14 16 17 18 18 18 17 17 16 15
17 15 15 18 16 17 18 17 15 14 14 15 15 14 13 13 13 13 13 14 15 15 16 15 15 15 15 15 15 15 15 15 15 15 14 13 13 14 14 14 14 15 16 18 18 17 16 16 16
17 16 15 18 16 15 16 16 14 14 14 15 15 14 13 12 12 12 14 14 14 15 15 14 14 14 14 14 14 14 14 14 14 14 14 13 13 12 13 13 14 14 14 15 17 17 16 15 15
18 15 16 15 14 13 14 14 14 13 14 14 13 13 12 12 13 12 13 14 14 14 14 14 14 14 14 14 14 14 13 13 13 13 13 13 13 12 13 13 13 13 14 14 15 15 15 14 15
18 17 15 12 15 14 13 14 13 12 13 12 13 12 12 12 13 11 12 13 13 13 13 13 14 14 14 14 14 13 13 13 13 13 13 13 13 13 12 12 13 13 13 13 13 13 14 13 13
14 15 14 13 11 12 10 12 12 11 13 12 13 13 13 11 10 10 11 14 14 14 14 13 13 13 14 13 13 13 13 13 13 13 13 12 13 12 11 11 12 13 12 13 12 13 13 13 12
16 15 12 9 12 9 6 9 12 12 13 13 13 12 11 11 10 10 11 12 12 13 13 13 13 13 13 12 12 12 12 12 12 12 12 12 12 12 11 10 10 12 13 13 12 12 12 12 11

GFSSGP_925_temp_033.txt.gz
Temp
26 26 26 25 24 22 25 27 26 28 29 29 29 29 29 28 28 26 24 24 24 23 22 21 20 20 20 20 20 20 20 20 20 20 19 20 20 20 20 20 20 20 20 20 20 20 20 20 20
26 26 26 21 23 23 24 26 28 28 29 27 28 27 28 29 25 23 23 24 24 23 22 21 20 20 20 20 20 20 20 20 20 19 19 20 19 19 19 20 20 20 20 20 20 20 20 20 20
26 26 23 22 22 25 25 27 27 30 29 29 29 28 27 29 25 24 26 24 24 23 23 22 20 20 20 20 20 19 20 20 20 19 19 19 19 19 19 19 20 20 20 20 20 20 20 20 20
26 24 21 23 26 26 27 27 29 29 30 30 29 29 28 28 27 28 27 25 24 23 23 22 20 20 20 20 20 19 19 19 19 19 19 18 19 18 18 18 19 19 19 19 19 20 20 20 20
25 20 22 24 25 26 26 27 27 28 29 28 29 29 28 28 27 27 26 25 24 24 23 23 22 20 20 20 19 19 19 19 18 18 18 18 18 18 17 17 18 18 18 18 18 19 20 20 20
22 21 23 24 25 25 25 25 27 27 28 28 29 27 27 27 27 27 26 25 24 24 23 23 23 22 21 20 19 19 19 18 18 18 18 18 18 17 17 17 17 17 17 17 17 18 19 20 20
23 21 24 25 25 26 28 25 28 27 26 29 28 28 26 25 26 26 26 25 24 24 23 23 22 22 21 21 19 19 19 18 18 18 18 17 17 17 17 16 16 16 16 16 17 18 20 19 20
19 20 25 24 24 26 27 25 27 27 27 25 27 26 27 26 26 24 25 24 24 23 23 23 22 22 21 21 20 19 19 18 18 18 18 17 17 17 16 16 16 16 16 16 16 17 18 18 19
21 21 22 25 25 26 26 26 27 25 25 24 26 27 26 26 26 24 23 22 22 22 22 22 22 22 21 21 21 20 20 18 18 18 17 17 17 17 17 17 16 16 16 16 16 17 17 17 18
21 20 23 24 26 26 25 26 26 26 22 25 25 25 27 25 24 24 23 21 22 22 22 22 22 22 22 21 21 21 20 19 19 19 18 18 18 18 18 17 16 16 16 16 17 17 18 18 17
22 22 24 25 25 25 25 24 25 25 24 24 24 22 21 24 23 21 21 21 21 20 22 23 23 22 22 21 21 21 20 20 19 20 19 19 19 18 18 18 17 17 16 17 17 18 18 18 18
24 24 24 25 25 23 25 25 25 25 24 21 19 17 16 16 16 16 17 17 20 22 22 20 20 21 22 21 22 22 21 20 20 20 21 21 21 20 19 18 18 18 18 18 18 18 18 18 18
24 24 24 23 21 22 23 23 24 24 19 17 17 17 16 16 16 16 16 17 17 19 20 21 21 20 20 20 21 22 21 20 20 20 20 21 21 21 20 19 19 19 19 18 18 18 18 18 18
23 22 21 22 22 22 24 24 24 22 18 17 16 16 15 15 16 16 16 16 17 17 17 19 21 22 21 20 19 18 18 18 19 19 20 21 21 21 20 20 20 20 19 19 18 18 18 17 18
22 22 21 25 22 24 23 25 23 19 17 16 15 15 15 15 16 15 16 16 16 17 17 17 18 19 18 19 19 19 19 18 19 19 19 19 20 21 21 20 20 20 20 19 18 18 17 17 17
21 20 21 24 22 23 24 22 17 17 16 14 14 12 14 14 15 16 16 16 17 17 17 17 18 18 18 18 18 18 19 18 19 19 19 19 20 20 20 20 21 20 20 19 19 18 17 17 17
18 21 22 21 22 21 22 18 16 16 16 14 12 12 14 13 15 15 16 16 16 17 17 17 17 17 18 18 18 18 18 18 18 19 19 19 19 19 20 21 21 20 19 19 19 18 17 17 17
21 21 21 21 21 20 16 15 15 15 14 13 12 11 12 13 13 15 16 16 16 16 17 17 16 16 17 18 18 18 18 18 17 17 18 19 19 19 18 20 21 20 19 19 18 18 17 17 17
22 21 20 19 21 20 15 15 15 15 13 13 12 12 12 13 14 15 16 16 16 16 16 16 16 16 16 16 17 17 17 17 17 17 17 17 18 18 18 18 19 20 19 19 19 18 17 17 16
21 20 19 19 20 20 15 15 16 15 15 14 13 12 13 13 12 14 15 16 16 16 16 16 16 16 16 16 16 16 16 16 16 16 16 16 16 16 17 18 18 18 19 19 18 18 17 16 15
20 20 20 19 18 18 15 15 15 15 15 14 13 13 13 13 13 13 14 15 16 16 16 16 16 16 15 15 16 16 15 15 15 15 15 15 15 16 15 15 17 17 17 19 19 18 17 17 15
19 20 20 19 18 18 18 15 14 14 15 14 13 12 13 14 13 13 14 14 15 15 16 16 16 16 15 15 15 15 15 14 15 15 15 15 15 15 15 15 15 15 16 15 18 19 17 16 15
19 19 18 19 17 17 17 15 14 13 14 15 14 13 13 12 12 13 14 14 15 15 15 15 15 15 15 15 15 14 14 14 14 15 15 14 14 14 15 14 14 14 14 15 16 16 17 17 15
18 18 16 14 14 15 16 16 13 13 13 14 14 13 12 12 12 13 14 14 15 15 15 15 15 15 15 15 15 15 14 14 13 13 13 14 14 14 14 13 13 13 13 13 14 15 16 16 16
16 14 15 17 15 16 16 16 14 13 13 14 15 13 12 11 10 11 12 13 14 15 15 14 14 14 14 14 14 14 14 14 13 13 13 13 13 13 13 13 13 13 13 12 13 13 14 14 14
17 15 14 18 16 14 14 15 14 13 13 14 14 12 11 11 10 10 12 13 13 14 14 14 13 14 14 14 14 14 13 13 12 12 13 13 13 13 13 13 12 12 13 13 12 13 12 12 13
17 15 15 15 13 12 13 14 13 13 12 13 11 11 11 10 10 11 12 13 13 13 13 13 13 13 13 13 13 13 13 13 12 12 12 12 12 12 12 12 12 12 12 12 12 12 12 12 12
17 16 15 11 15 14 12 12 13 11 11 11 10 10 10 10 10 10 11 12 12 12 13 13 13 12 12 13 13 12 12 12 12 11 10 10 11 12 12 11 11 11 11 11 12 12 12 12 11
14 14 12 12 11 13 11 12 12 11 11 11 10 10 10 9 9 8 10 11 12 13 13 13 13 13 12 12 12 12 12 11 11 11 11 11 11 11 11 11 11 11 11 11 11 12 11 11 11
14 14 12 10 12 8 5 8 12 10 10 11 10 10 10 9 9 9 10 11 12 11 11 12 12 12 12 12 12 11 11 11 11 11 11 11 11 11 11 11 11 10 11 11 10 10 11 11 11

GFSSGP_925_temp_036.txt.gz
Temp
26 26 25 24 24 22 24 26 26 27 28 28 28 28 28 28 28 26 23 24 24 23 22 20 20 20 20 20 20 20 20 20 20 20 19 19 20 20 20 20 20 20 20 20 20 20 20 20 20
26 26 25 21 23 22 23 25 27 27 28 27 28 28 28 29 25 23 23 23 24 23 22 21 20 20 20 20 20 20 20 20 20 19 19 19 19 19 19 20 20 20 20 20 20 20 20 20 20
26 25 22 21 21 24 25 26 25 28 28 28 28 27 27 29 25 24 25 24 23 23 22 22 20 20 20 20 20 19 19 19 19 19 19 19 19 19 19 19 20 20 20 20 20 20 20 20 20
26 23 21 23 26 26 26 26 26 27 28 28 28 28 27 27 26 26 26 25 24 22 22 21 20 20 20 20 20 19 19 19 18 18 18 18 18 18 18 19 19 19 19 19 19 20 20 20 20
24 20 22 24 25 25 26 25 25 27 27 27 28 28 28 26 25 26 25 25 24 23 22 22 20 20 20 20 20 19 19 19 18 18 18 18 18 18 17 18 18 18 18 18 18 19 20 20 20
21 20 22 24 25 25 24 24 26 26 26 25 26 27 27 26 26 25 25 25 24 24 23 22 22 21 20 20 20 19 20 20 18 18 18 18 18 17 17 17 17 17 17 17 18 18 20 20 20
22 21 23 24 24 25 27 23 26 26 25 26 24 27 25 24 25 25 25 24 24 24 23 22 21 20 21 20 19 19 20 20 18 18 18 17 17 17 17 16 16 16 16 16 17 18 20 20 20
19 20 24 23 23 26 25 25 26 26 26 23 25 24 26 25 24 24 23 23 23 23 23 23 21 20 20 20 20 19 19 19 18 18 18 17 17 17 16 16 16 16 16 16 16 16 19 19 19
21 21 22 25 24 26 24 24 26 25 24 23 24 23 21 22 21 22 21 21 21 21 21 21 21 21 21 21 20 20 20 20 21 19 18 17 18 18 17 17 17 16 16 16 16 16 17 17 18
20 20 24 23 24 25 24 24 24 25 22 23 22 18 17 19 21 20 20 20 20 20 20 20 20 20 20 20 20 20 20 19 19 20 20 20 20 20 19 18 18 16 16 16 16 16 16 17 17
21 23 23 25 24 23 24 24 24 23 21 16 16 15 15 15 16 16 16 16 18 20 20 21 20 20 20 20 20 19 20 20 19 19 20 20 21 20 20 20 20 20 18 18 18 17 17 17 17
24 23 23 24 23 22 23 23 19 15 15 15 15 15 15 14 14 15 15 15 16 18 18 19 19 20 20 20 20 19 19 19 19 18 18 18 19 19 20 20 20 20 20 19 18 18 18 18 18
23 23 22 22 20 21 21 20 18 15 15 15 15 15 14 14 14 15 15 16 16 16 17 18 19 19 20 20 20 19 19 19 19 19 18 18 19 19 19 19 19 20 20 19 19 19 18 18 18
21 21 20 22 22 22 23 21 19 16 15 14 14 13 13 13 13 14 14 15 16 16 17 17 18 19 18 19 19 19 19 19 18 18 18 18 19 19 19 19 19 19 19 19 19 19 18 18 17
21 22 21 21 21 23 21 18 15 16 15 13 12 11 13 13 14 13 14 14 15 16 17 17 17 18 18 18 18 18 18 18 18 19 19 19 19 19 19 19 19 19 19 19 18 18 18 18 17
20 19 21 22 21 21 23 19 14 14 14 12 12 11 12 12 13 14 15 15 16 16 16 17 17 18 18 17 18 18 17 17 17 18 18 18 18 18 19 19 19 19 18 18 18 18 18 18 17
17 20 22 21 20 21 19 16 14 14 14 12 11 11 12 12 13 15 15 16 16 16 16 16 17 17 17 17 17 17 17 17 17 17 16 16 17 17 17 18 19 19 18 18 18 18 17 17 17
21 21 21 20 20 15 14 14 14 14 13 12 11 11 11 12 12 14 15 16 16 16 16 16 16 16 16 17 17 17 17 16 16 16 16 16 16 16 16 17 17 17 17 17 17 18 18 17 17
21 20 20 19 20 15 14 14 15 14 13 12 12 12 12 12 13 14 15 15 16 16 16 16 16 16 16 16 16 16 16 16 16 16 15 15 15 15 15 15 16 17 17 17 17 17 17 17 16
21 20 18 19 19 15 14 14 15 15 14 14 13 13 13 13 12 13 14 15 15 16 16 16 16 16 16 15 15 15 15 15 15 15 15 15 15 15 15 15 15 15 15 16 16 16 16 16 16
20 19 19 19 18 15 14 14 14 15 14 14 13 13 13 12 12 12 13 14 15 15 15 15 15 16 15 15 15 15 15 15 15 15 15 15 14 15 15 15 14 14 14 14 16 16 15 15 15
19 19 19 19 17 16 16 15 13 13 14 14 13 11 11 11 11 12 13 14 14 15 15 15 15 15 15 14 14 14 13 13 13 14 13 13 14 14 14 14 14 14 13 13 14 14 15 14 13
19 18 17 18 16 16 15 15 14 12 13 14 14 12 11 11 10 10 13 14 15 15 14 14 14 14 14 14 14 14 14 14 14 14 14 13 13 13 13 13 13 13 13 13 13 13 13 13 14
17 18 14 13 13 15 16 15 14 11 12 13 14 12 11 11 10 11 13 14 14 15 14 14 14 14 14 14 14 14 13 13 13 13 13 13 13 13 13 13 13 13 13 12 13 12 12 12 13
15 14 15 17 15 17 15 15 14 12 11 12 14 13 11 10 9 9 10 12 13 14 14 14 13 13 13 13 13 13 13 13 13 12 12 12 12 12 13 13 12 12 13 12 12 12 12 12 12
16 15 14 19 16 14 13 14 15 12 12 12 13 11 10 9 9 8 10 12 12 13 13 13 13 13 13 13 13 13 13 12 12 12 11 11 11 11 12 12 12 12 12 12 12 12 11 11 11
16 14 14 14 12 12 12 13 13 12 11 12 12 10 9 9 9 9 11 12 12 13 13 13 13 12 13 13 12 12 12 12 12 11 11 11 11 11 11 11 11 11 11 11 12 11 11 11 11
16 14 14 11 15 14 12 12 13 10 10 10 10 9 9 9 9 8 10 12 12 13 12 12 12 11 11 12 12 11 12 12 11 11 11 10 10 10 10 10 11 11 11 11 11 11 11 11 10
14 13 11 11 10 13 11 12 11 12 11 10 9 9 9 9 8 8 10 11 12 12 12 12 12 12 11 12 12 12 12 12 11 11 10 10 10 10 9 10 10 10 10 11 10 10 10 10 10
14 14 12 10 12 7 5 9 11 10 10 10 10 9 9 8 8 8 10 10 10 10 10 10 10 10 10 10 10 9 8 9 9 11 10 10 10 10 9 9 9 9 10 9 10 10 10 10 9

GFSSGP_925_temp_042.txt.gz
Temp
24 24 25 27 32 33 31 30 31 32 33 33 33 33 33 33 32 30 25 25 24 24 24 22 21 21 21 21 21 21 21 21 20 20 20 20 20 20 21 21 21 21 21 21 21 21 21 20 20
25 25 26 31 32 32 31 32 31 32 32 33 33 33 33 31 32 30 29 24 24 24 24 23 21 21 21 21 21 20 20 20 20 20 19 20 20 20 20 21 21 20 21 20 20 21 21 21 21
25 25 32 33 32 31 31 31 31 32 32 33 33 33 33 30 31 30 26 24 25 24 24 23 21 21 21 21 21 20 20 20 20 20 19 20 19 19 20 20 20 20 20 20 20 20 20 21 21
27 30 32 33 31 30 31 31 31 32 33 33 33 32 31 27 28 27 25 25 25 24 24 22 21 21 21 21 20 20 20 20 20 20 20 19 19 19 19 20 19 20 20 20 20 20 20 20 21
28 32 32 32 30 31 31 31 32 32 32 32 33 32 30 27 26 25 25 25 26 25 24 22 21 21 21 20 20 20 19 19 19 20 20 18 18 19 19 19 19 19 19 19 20 20 19 20 20
31 31 32 32 31 30 31 31 32 32 32 31 32 32 29 27 24 25 25 25 25 24 24 24 21 21 20 20 20 20 19 19 19 19 19 19 18 18 20 20 18 18 18 18 19 19 19 20 20
31 32 31 30 30 30 30 31 30 31 31 29 30 31 31 26 22 24 24 25 24 24 24 24 24 22 21 20 20 20 20 19 18 18 18 18 18 17 18 19 19 19 19 19 19 19 19 19 20
29 31 30 29 30 28 29 30 30 30 28 29 26 27 29 22 22 23 24 24 24 23 23 24 24 24 22 21 21 20 19 19 18 18 18 18 18 18 17 17 17 17 18 19 20 19 19 19 19
27 31 31 29 30 28 29 29 29 28 29 24 23 22 21 21 23 24 25 24 24 23 23 23 24 24 24 23 23 21 20 20 19 19 19 18 20 20 19 19 18 16 16 16 18 19 19 20 20
30 31 29 28 28 28 28 28 27 28 27 24 23 22 21 22 23 23 24 24 23 23 22 22 24 24 24 23 23 23 23 22 21 22 21 21 21 20 19 19 18 17 16 16 16 17 19 19 20
28 30 28 27 27 27 27 25 23 26 24 21 20 21 21 22 22 22 22 22 21 21 20 21 21 21 21 21 21 22 22 23 23 22 22 21 20 20 20 20 19 19 18 19 18 18 19 19 19
29 27 27 26 25 26 26 24 22 21 20 20 19 20 21 22 21 21 21 21 21 20 20 20 20 21 21 20 19 19 20 20 22 22 21 21 20 20 20 20 20 19 19 19 19 19 19 18 18
29 27 27 25 24 24 24 22 21 19 19 19 19 20 21 21 21 20 20 20 20 20 20 20 20 20 21 20 19 19 19 19 19 20 20 20 19 20 20 20 20 20 19 19 20 19 19 19 19
26 26 26 26 25 24 23 21 22 19 20 20 20 20 20 20 20 20 20 20 20 20 19 19 19 19 19 19 18 17 17 18 18 18 18 18 19 19 18 19 20 19 19 19 20 20 20 20 19
25 27 26 26 25 23 24 22 20 19 20 20 21 21 20 19 19 19 19 19 19 19 19 18 19 19 19 19 18 18 17 17 17 17 17 17 17 17 17 17 18 19 19 19 19 19 19 19 19
27 27 27 25 25 23 24 26 19 19 20 20 21 21 20 19 19 19 18 19 19 19 19 18 19 19 19 19 19 18 18 18 18 18 17 16 16 16 16 16 15 16 16 17 18 18 18 19 19
27 29 27 25 24 24 24 24 20 19 20 20 21 21 20 20 19 19 18 18 18 18 18 18 18 18 18 18 19 18 18 18 18 18 17 17 16 16 16 15 14 14 15 16 17 18 18 19 19
28 28 26 26 24 24 24 22 19 19 20 20 20 20 20 20 19 18 18 18 18 18 18 18 18 17 17 17 18 18 18 18 17 17 16 16 16 16 16 16 16 14 13 13 15 17 18 17 19
26 25 25 25 22 23 22 22 20 19 19 19 20 20 20 20 19 18 18 18 18 18 18 17 17 17 17 17 17 17 17 17 17 16 16 16 15 15 15 16 15 15 14 13 13 14 16 17 17
25 25 26 23 21 23 23 22 21 19 19 20 20 20 20 20 20 19 18 18 17 17 17 17 17 16 16 15 15 15 16 16 15 15 15 15 15 15 15 15 15 15 15 14 13 12 13 15 15
24 25 25 24 22 21 21 23 20 19 19 19 20 20 20 19 20 20 19 18 17 17 16 16 16 16 16 15 15 15 15 15 15 15 15 15 14 15 14 14 15 15 15 15 14 14 11 11 14
24 22 22 22 23 25 22 26 21 21 19 19 19 19 20 19 19 19 19 18 18 17 16 15 15 15 15 15 15 14 14 15 15 14 14 14 14 14 14 14 14 14 14 15 15 14 14 12 11
23 21 21 21 22 22 22 22 26 20 19 20 20 20 19 19 19 19 18 17 17 16 15 15 15 15 15 15 14 14 14 14 14 14 14 14 14 14 14 14 14 14 14 14 14 14 14 14 13
20 21 20 20 21 23 24 23 28 21 22 21 20 19 19 19 19 18 18 17 17 16 15 15 15 15 14 14 14 14 13 13 14 14 14 14 14 14 13 13 13 13 13 13 13 14 13 14 14
22 22 25 25 23 26 21 21 26 23 21 22 20 19 19 18 18 18 18 17 16 15 15 15 15 14 14 14 13 13 13 13 13 13 13 13 13 13 13 13 13 13 13 13 12 13 13 13 13
21 22 25 25 26 26 19 22 26 20 20 21 20 19 18 18 18 17 17 16 15 15 15 14 14 13 13 13 13 13 13 12 12 12 12 12 12 12 12 12 12 12 12 13 12 12 12 13 13
21 22 19 22 19 21 25 23 22 18 18 18 18 18 17 17 17 17 16 15 15 15 14 14 13 13 13 12 12 12 12 12 11 11 11 11 11 11 11 11 11 12 12 12 12 12 12 13 13
20 19 21 22 23 23 25 23 25 19 19 18 18 18 18 16 16 17 16 15 15 14 13 13 13 12 12 12 11 11 11 11 11 11 11 10 10 10 11 10 10 11 11 11 11 12 12 12 13
19 20 19 19 21 23 24 25 24 22 22 20 20 19 18 17 16 16 15 15 14 13 13 12 12 11 11 10 10 10 10 10 10 10 10 10 10 10 10 10 10 11 11 11 11 11 12 12 12
18 20 21 21 22 20 18 21 20 20 19 19 20 20 18 16 15 15 15 14 14 13 13 12 11 10 10 9 9 9 9 9 9 9 9 9 9 9 10 9 9 10 11 11 11 11 11 12 12

GFSSGP_925_temp_048.txt.gz
Temp
27 28 29 29 28 28 30 30 32 31 32 34 35 32 31 30 29 26 28 28 27 25 22 21 22 21 22 21 21 21 21 21 20 20 20 20 20 20 20 20 20 20 20 20 20 20 20 21 21
27 28 29 27 24 24 29 32 31 32 34 34 34 32 30 29 30 28 27 28 27 25 24 22 21 21 21 22 21 21 20 20 20 20 20 20 20 21 20 20 20 19 20 20 21 20 20 20 21
28 29 28 29 25 26 29 31 32 33 34 34 33 31 29 27 30 29 28 28 28 27 25 23 21 21 21 21 21 20 20 20 20 20 20 19 19 20 20 20 19 19 20 20 20 20 20 20 20
29 29 29 30 30 31 31 32 32 33 33 34 32 28 28 28 30 29 29 28 28 27 25 23 22 21 21 21 20 20 20 20 20 20 20 19 18 20 19 19 20 19 20 19 20 20 20 20 20
30 28 30 30 30 31 32 33 33 32 33 32 32 28 26 26 29 29 29 29 28 26 25 24 22 21 21 21 20 20 20 20 20 20 20 19 18 19 19 19 19 20 19 19 19 19 19 20 20
28 30 30 30 31 32 32 33 33 32 31 29 30 28 26 27 27 28 29 29 28 27 25 25 24 23 22 21 20 20 20 20 20 20 20 20 19 19 20 21 20 19 19 19 19 19 19 19 20
30 29 31 30 30 30 31 32 30 30 28 28 28 28 25 26 27 28 28 28 28 27 27 26 26 24 23 23 22 21 21 20 20 20 19 20 19 20 21 21 21 21 21 20 20 19 19 19 19
28 30 32 30 30 29 31 32 31 29 26 29 27 24 24 25 27 28 28 28 28 27 27 27 26 25 24 24 23 22 21 21 20 20 20 20 20 20 20 20 20 20 21 21 21 19 19 19 19
31 29 28 31 31 29 31 31 30 29 27 26 26 24 26 26 28 28 28 27 27 26 25 25 25 25 24 23 23 22 21 21 21 21 21 21 22 21 21 20 20 20 20 21 21 21 19 19 19
30 29 30 31 31 30 30 29 28 29 27 25 25 25 26 26 26 26 26 26 25 24 24 24 24 24 24 24 22 21 21 21 21 21 21 21 21 22 22 22 21 21 20 21 21 21 21 20 20
31 29 29 30 29 29 30 27 27 27 24 23 23 24 25 25 25 25 25 25 24 23 23 23 24 24 24 23 22 21 21 21 20 20 20 20 22 22 23 22 22 21 21 20 20 20 20 21 21
29 30 30 29 28 29 29 27 24 23 22 23 24 25 25 23 24 24 24 24 23 23 23 23 23 23 22 21 20 19 19 20 20 20 20 22 21 21 21 21 22 22 22 21 21 21 21 21 21
31 29 29 28 28 27 28 26 24 22 22 23 24 24 23 23 24 24 24 23 23 22 22 22 22 22 21 21 20 20 19 19 19 19 19 19 20 20 21 21 21 21 22 22 21 21 21 21 21
30 30 28 27 27 27 25 24 24 23 23 23 23 23 22 22 23 23 23 23 22 22 21 21 22 22 21 21 21 20 20 20 20 19 19 18 18 18 18 18 19 20 20 20 19 21 21 22 22
30 28 28 27 27 27 27 24 23 22 23 23 23 22 21 22 23 22 22 23 22 21 21 21 21 20 20 20 20 20 20 20 19 19 19 19 18 18 18 18 18 18 18 18 18 19 20 20 21
28 28 26 27 27 26 26 24 24 23 23 22 23 21 21 22 22 22 22 22 22 22 21 20 20 20 19 20 19 19 19 19 19 19 18 18 18 18 17 17 17 17 17 17 16 16 17 18 19
28 27 27 26 28 26 24 25 23 23 23 23 22 21 21 21 22 22 21 21 21 21 21 20 19 19 19 19 18 18 18 18 18 18 18 17 17 17 17 16 16 17 17 16 16 16 15 15 16
28 28 29 29 26 26 25 24 23 22 22 22 22 21 21 20 21 21 21 21 20 21 20 20 19 19 18 18 17 17 17 17 17 17 17 17 17 16 16 16 16 16 16 16 16 15 15 15 14
27 27 27 28 26 25 24 24 26 22 21 21 21 22 21 21 21 21 21 20 20 20 20 20 19 18 18 17 17 16 16 16 16 16 16 16 16 16 16 16 16 16 16 16 16 16 16 15 15
27 27 27 28 26 25 24 24 25 22 21 21 21 21 21 21 19 21 21 20 20 20 20 19 18 18 18 17 17 16 16 16 16 16 16 16 16 16 16 15 15 16 16 16 16 16 16 15 14
27 26 26 25 26 25 24 23 24 24 22 21 22 21 22 21 20 19 21 21 20 20 20 19 18 18 18 17 17 16 16 15 15 15 15 15 15 15 15 15 15 15 15 15 15 15 15 15 15
25 25 25 25 24 23 25 21 26 23 21 21 20 20 20 21 21 22 22 21 21 20 19 19 18 17 17 17 16 16 15 15 15 15 15 14 15 15 15 15 15 15 15 15 15 15 15 15 14
24 24 24 24 22 22 23 22 25 22 21 20 20 20 20 20 20 20 21 21 20 19 19 18 17 17 17 16 16 15 15 15 14 14 14 14 14 14 14 14 14 14 15 15 15 14 14 14 14
24 23 23 23 22 20 23 23 23 22 23 22 21 20 20 20 20 20 21 20 19 19 18 17 16 16 16 16 15 15 15 15 14 14 14 13 13 13 13 14 13 14 14 14 14 14 14 13 13
23 22 22 21 20 22 25 24 25 24 24 24 22 20 20 19 19 19 19 19 19 18 17 17 17 16 16 15 15 15 14 14 14 13 13 13 12 12 12 13 13 13 13 13 13 13 13 13 13
23 23 21 22 23 24 24 22 24 23 23 24 24 21 20 19 18 18 19 19 18 18 17 17 17 16 15 15 15 14 14 13 13 12 12 11 11 11 11 11 12 12 12 12 12 12 12 12 12
23 21 22 22 23 22 24 25 23 23 22 22 22 20 19 19 18 18 19 19 18 18 17 17 16 16 15 15 14 13 13 12 11 11 11 11 11 10 11 10 11 11 11 11 11 11 11 11 11
21 21 21 20 22 22 25 24 21 21 21 22 21 20 19 19 19 18 18 19 18 18 17 16 16 15 15 14 13 12 11 11 10 10 10 9 9 9 9 9 9 10 10 11 11 11 10 11 11
20 21 21 21 20 21 20 22 25 23 22 20 20 20 19 18 17 17 18 18 18 17 17 16 15 14 14 13 12 11 11 10 9 9 9 9 9 9 8 8 8 8 8 9 10 10 10 11 10
20 21 22 20 21 20 17 18 21 21 21 21 20 20 19 19 19 17 18 18 18 17 16 15 14 13 13 12 11 10 10 9 9 9 8 9 8 7 7 7 7 7 7 7 8 9 9 10 10

GFSSGP_925_temp_054.txt.gz
Temp
28 28 28 26 24 23 25 29 28 27 27 26 27 27 25 25 25 22 24 24 24 23 21 21 21 21 21 21 20 19 20 19 19 19 19 19 19 19 19 19 20 20 20 20 20 20 20 20 21
28 28 27 24 23 23 25 27 27 26 26 26 26 26 24 24 25 22 23 23 24 23 22 22 21 21 21 21 20 20 20 20 19 19 19 19 18 19 19 19 19 19 19 20 20 20 21 21 21
28 27 24 24 23 25 26 28 27 27 27 28 26 24 24 24 26 26 26 24 24 23 23 23 22 21 21 21 20 20 20 20 20 20 19 18 18 18 19 18 18 18 19 19 19 20 20 20 21
28 25 23 24 27 28 28 28 29 29 26 25 25 24 24 25 24 27 25 24 24 24 23 23 23 22 21 21 21 20 20 20 20 20 19 18 20 19 19 19 19 19 19 19 19 20 20 20 21
27 22 23 25 27 28 26 26 25 25 25 24 25 24 24 25 25 25 25 25 25 24 24 23 22 21 21 21 21 21 20 20 20 20 20 19 19 21 20 20 20 20 20 19 20 20 19 20 20
24 23 24 24 27 28 26 26 25 24 23 24 24 23 23 25 25 25 25 25 24 24 22 22 22 21 21 21 20 20 20 20 20 20 20 20 20 21 21 21 21 21 21 21 21 20 19 19 20
25 23 24 24 26 28 28 25 23 23 23 23 24 23 23 24 26 25 24 23 23 23 23 23 23 23 22 22 21 20 20 20 20 20 20 20 20 20 19 20 21 21 21 21 21 20 19 19 20
22 23 27 26 25 27 28 27 24 24 23 23 23 21 23 24 24 24 24 23 24 23 23 23 22 22 22 22 21 20 20 20 20 20 20 20 20 20 20 20 20 20 20 20 21 21 20 19 19
24 22 24 27 26 27 27 27 24 22 22 22 22 22 23 23 24 24 22 22 23 23 22 23 23 22 20 21 20 20 19 19 19 19 20 20 20 20 20 20 19 19 20 20 21 21 21 20 20
24 22 26 27 27 27 26 26 23 23 22 21 22 22 22 23 23 21 21 21 21 21 21 21 21 20 20 19 19 19 19 19 19 19 19 20 19 20 20 20 19 19 19 20 20 20 20 20 20
26 25 26 26 26 26 25 24 23 21 22 20 21 21 21 21 21 20 20 21 21 20 20 20 20 20 20 20 19 19 19 19 19 19 19 19 19 19 19 18 18 18 19 19 19 19 19 20 20
27 27 27 26 26 27 25 23 21 21 22 20 20 21 20 18 19 19 20 20 21 20 20 20 20 20 20 19 19 19 19 18 18 18 18 19 18 18 18 17 17 18 17 18 19 19 19 19 19
27 26 26 25 24 23 22 22 21 20 19 20 19 19 18 18 18 19 20 20 21 20 20 20 20 20 19 19 19 19 19 18 18 18 18 18 18 17 17 17 17 17 17 17 17 17 17 18 18
26 26 25 25 25 24 23 21 22 19 19 20 19 17 17 18 19 19 20 20 20 20 20 19 19 19 19 19 19 18 18 18 18 17 17 17 17 17 17 17 17 17 16 16 16 16 17 17 17
24 25 24 24 23 24 22 22 20 19 18 19 17 16 17 18 19 19 19 20 20 19 19 19 19 19 19 18 18 18 17 17 17 17 17 16 16 16 16 16 16 16 16 16 16 16 16 16 16
25 23 23 23 22 24 24 21 22 18 18 17 16 15 17 17 19 19 20 20 19 19 19 19 19 18 18 18 18 17 17 17 17 16 16 16 16 16 15 15 15 15 15 15 15 15 15 15 15
21 22 21 23 21 22 22 21 21 17 18 17 15 14 16 16 17 19 20 20 19 19 19 19 18 18 18 17 17 17 17 16 16 16 16 15 15 15 15 15 15 15 15 15 15 15 15 15 15
22 22 24 24 23 21 21 20 20 18 17 17 14 14 15 15 16 19 20 20 19 19 19 18 18 18 17 17 17 17 16 16 16 15 15 15 15 15 14 14 14 14 14 14 15 15 15 15 15
24 24 24 23 24 22 20 19 19 18 17 16 14 14 14 15 17 19 20 20 20 19 18 18 18 18 17 17 17 16 16 16 16 15 15 14 14 14 14 14 14 14 14 14 14 14 14 14 15
24 24 22 23 24 23 22 21 21 18 18 18 16 15 15 15 14 17 19 20 20 19 18 18 18 18 17 17 16 16 16 16 15 15 15 14 14 14 13 13 13 13 13 13 13 13 13 13 14
23 23 22 22 22 22 21 19 20 20 19 17 17 16 15 15 15 14 17 19 19 19 19 18 18 17 17 16 16 16 16 16 15 15 14 14 13 13 13 13 13 13 12 12 13 13 12 12 13
23 22 23 22 20 20 20 18 18 19 18 17 16 15 15 14 15 15 16 17 19 19 18 18 17 17 17 16 16 16 15 14 14 14 13 13 13 12 12 12 12 12 12 12 12 12 12 12 11
22 22 22 21 19 19 18 18 18 18 18 16 16 15 14 14 14 14 15 18 19 19 19 18 17 17 17 16 16 15 15 14 14 13 13 12 12 11 11 11 10 10 11 11 10 10 11 11 11
21 21 17 16 16 16 18 18 18 18 19 17 16 15 15 14 14 15 17 18 18 18 17 17 17 17 17 16 16 15 14 14 13 13 12 11 11 10 10 10 9 9 9 9 9 9 9 10 10
19 17 17 18 16 17 19 18 18 18 19 19 17 15 15 14 14 14 14 16 17 17 17 17 17 17 16 16 15 14 14 13 12 11 11 10 10 9 9 9 9 9 8 8 8 8 8 9 9
19 17 16 20 17 18 18 19 20 20 18 16 17 16 15 14 14 13 14 16 17 17 17 17 17 16 16 15 14 13 13 12 11 10 10 9 9 9 8 8 8 8 8 7 8 8 8 8 8
20 18 18 18 16 16 17 20 19 20 18 16 15 16 15 14 13 13 15 16 17 17 17 17 16 15 14 13 13 12 11 10 10 9 9 8 8 7 7 7 7 6 6 6 6 6 7 7 7
20 18 18 15 19 19 17 19 18 20 19 18 17 16 16 15 14 13 14 16 17 16 16 15 14 13 13 12 11 10 10 9 9 8 8 7 7 7 6 6 5 5 5 5 5 5 5 6 6
17 17 17 15 14 16 16 17 18 19 18 18 18 16 15 14 13 12 13 15 15 15 14 14 13 12 11 10 10 9 9 8 8 7 7 7 6 5 5 4 4 4 4 4 4 4 4 5 5
18 18 16 14 17 13 10 14 17 17 16 17 17 16 15 15 15 14 14 14 14 13 13 12 11 11 10 9 9 8 8 7 7 6 5 5 5 4 4 4 4 4 4 4 4 4 4 4 4

GFSSGP_925_temp_057.txt.gz
Temp
28 27 27 26 24 22 24 27 26 27 25 24 26 25 23 23 24 22 23 22 23 22 21 21 22 21 20 20 19 19 19 19 19 19 19 19 20 19 19 19 19 19 20 20 20 20 20 20 20
28 27 26 23 22 23 24 26 26 26 25 24 24 24 23 23 23 21 22 22 23 23 22 21 22 21 20 21 20 20 20 19 19 19 18 18 19 19 19 19 19 19 19 20 20 20 20 20 20
27 26 24 23 22 24 25 27 25 25 25 26 24 23 23 24 24 23 24 23 23 23 23 22 22 21 20 21 20 19 20 19 19 19 18 18 18 19 18 18 19 19 19 19 20 20 20 20 20
27 24 22 24 26 26 27 27 24 25 25 24 24 23 23 24 23 25 24 24 24 23 22 21 21 20 20 20 19 19 19 20 20 19 18 18 18 18 18 19 19 20 20 20 20 20 20 20 20
26 21 23 24 26 27 26 25 24 24 24 23 23 23 23 24 23 25 25 24 23 22 22 21 21 20 20 20 20 19 19 19 19 19 19 19 19 20 20 20 20 20 20 20 20 20 20 20 21
23 22 24 24 26 26 26 26 24 23 23 24 23 23 23 24 24 22 22 22 22 22 22 22 21 21 20 20 20 20 19 19 19 19 19 19 19 19 19 20 21 21 21 21 21 20 19 20 20
24 22 24 24 26 27 27 25 24 23 23 23 23 23 23 22 23 22 22 22 22 22 22 22 22 22 21 21 21 20 20 20 19 19 19 19 19 19 19 19 19 19 19 20 21 21 20 19 20
21 22 25 25 25 27 27 25 23 24 22 22 22 21 22 21 22 22 22 22 21 20 21 22 21 21 21 20 20 20 20 19 19 19 19 19 19 19 20 19 19 19 19 19 20 20 20 20 19
22 22 23 25 24 27 26 25 23 21 21 21 21 21 21 21 22 22 22 21 21 21 22 22 21 20 20 20 20 20 19 19 19 19 19 19 19 20 20 19 19 19 18 18 18 18 19 20 20
23 22 24 25 25 26 26 25 22 23 21 21 20 20 20 21 21 20 19 19 20 19 19 20 20 19 19 19 19 19 19 19 19 19 18 18 18 19 19 19 19 18 18 18 18 18 18 18 19
24 25 25 26 26 25 24 23 22 20 22 20 20 19 19 19 19 18 18 19 19 19 19 19 20 19 19 19 19 19 18 18 18 18 18 18 18 18 18 18 18 18 17 18 18 18 19 19 19
28 26 25 25 26 25 24 22 21 21 22 20 18 18 18 16 17 18 18 19 19 19 19 19 20 20 19 19 19 18 18 18 18 18 18 18 18 17 17 17 17 17 17 16 17 17 17 17 18
27 26 25 24 23 22 22 22 23 21 19 18 18 18 16 16 17 18 19 19 19 19 19 19 19 19 19 19 18 18 18 17 17 17 17 17 17 16 16 16 16 16 16 16 16 16 16 16 17
25 25 24 24 24 23 23 21 21 19 18 18 17 16 15 15 17 17 18 18 19 18 18 19 19 19 19 18 18 17 17 17 17 16 16 16 16 16 15 15 15 15 15 15 15 15 16 16 16
24 26 24 24 23 24 21 22 20 19 17 17 16 15 15 16 18 18 18 19 19 19 18 19 18 18 18 18 17 17 17 17 16 16 16 16 15 15 15 15 15 15 15 15 15 15 15 15 15
24 22 23 24 22 23 23 21 23 17 17 16 15 14 15 15 17 18 19 19 19 19 19 18 18 18 18 18 17 17 17 16 16 16 15 15 15 14 14 14 14 14 14 14 14 14 15 15 15
20 22 21 22 21 22 22 21 21 16 17 16 14 14 15 15 15 18 19 19 19 19 19 19 18 18 18 17 17 16 16 16 16 15 15 15 14 14 14 14 14 14 14 14 14 14 14 14 14
22 22 22 22 23 21 21 19 20 16 16 16 14 13 14 14 15 18 19 19 19 19 18 19 18 18 18 17 17 17 16 16 16 15 15 14 14 14 14 13 13 13 13 13 13 13 13 13 13
23 23 23 23 23 21 19 19 19 17 15 15 14 13 13 13 16 17 18 19 18 18 18 18 18 18 17 17 17 16 16 16 16 15 15 14 14 14 13 13 13 13 13 13 12 12 12 12 13
24 23 22 22 23 21 21 20 19 18 17 17 16 14 14 14 14 16 17 18 18 18 18 18 18 17 17 17 16 16 16 15 15 15 14 14 14 13 13 12 12 12 12 12 12 12 11 11 12
23 22 22 22 21 21 20 19 19 20 18 17 16 15 15 14 14 13 15 17 18 18 18 18 17 17 17 16 16 16 15 16 15 15 14 13 13 12 12 12 11 11 11 10 11 11 10 9 10
22 22 22 22 20 19 19 18 18 18 16 17 15 13 13 13 14 14 14 16 18 19 18 18 17 17 17 16 16 16 15 14 14 14 13 13 13 12 11 11 10 10 10 10 10 10 9 9 8
22 21 21 20 18 18 18 17 18 17 18 17 15 13 13 13 14 13 15 17 18 18 18 18 17 17 16 16 16 15 15 14 14 13 13 12 12 11 10 10 9 9 9 9 9 9 9 9 8
20 20 16 15 15 16 17 17 18 18 18 17 17 14 14 13 12 13 16 17 17 18 17 17 17 17 16 16 15 15 14 13 13 12 11 11 10 10 10 9 9 8 8 8 8 8 8 8 8
18 17 17 17 16 17 17 17 17 18 18 17 16 15 14 13 12 12 13 15 17 17 17 17 17 16 16 15 14 14 13 12 11 11 10 10 9 9 8 8 8 8 7 7 7 7 7 7 7
19 17 16 20 17 17 17 18 19 19 17 15 14 15 15 14 12 12 14 15 16 16 17 16 15 15 14 14 13 13 12 11 11 10 9 9 8 7 7 7 7 7 7 6 6 6 6 6 6
18 17 17 16 15 15 16 17 19 18 17 15 14 16 16 14 13 13 14 15 15 15 15 15 14 14 13 13 12 11 11 10 9 9 8 7 7 7 6 6 6 5 5 5 5 5 4 5 4
19 17 17 14 19 18 16 17 17 17 18 16 16 17 16 14 13 12 12 13 14 14 14 13 13 12 12 11 11 10 9 9 8 7 7 6 6 5 5 5 4 4 4 4 4 4 4 4 4
16 17 14 14 13 15 15 16 15 18 18 19 18 14 14 14 13 12 13 14 14 13 13 12 12 11 11 10 9 9 8 7 6 6 6 5 5 5 4 4 4 3 3 3 3 3 3 3 3
17 17 15 14 16 11 9 13 16 15 15 15 16 15 14 13 12 11 13 12 12 11 11 11 11 10 9 9 8 7 7 7 6 6 5 5 4 4 3 3 3 3 3 3 3 3 3 3 3

GFSSGP_925_temp_060.txt.gz
Temp
27 27 26 25 24 22 24 26 25 25 24 23 24 24 22 22 23 21 22 22 22 22 21 21 21 20 20 20 19 19 19 19 19 19 19 19 19 19 19 19 19 20 19 20 20 20 20 20 20
27 26 26 21 22 23 23 25 25 24 24 23 23 23 22 22 22 21 22 22 23 23 21 20 20 20 20 19 19 19 19 19 19 18 18 18 18 18 18 18 18 19 19 19 19 20 19 19 20
27 26 23 23 21 23 24 26 24 24 24 25 23 22 23 23 22 22 24 24 22 22 21 20 20 20 20 20 19 19 19 19 19 18 18 18 18 18 18 18 18 18 18 19 20 20 20 19 20
27 24 21 23 26 25 26 25 24 24 25 23 23 22 22 23 23 24 24 23 22 22 21 21 21 20 20 20 19 19 19 19 19 19 18 18 18 18 18 19 19 20 20 19 19 19 20 20 20
25 21 22 23 26 26 25 24 24 25 24 23 23 22 22 23 22 24 23 22 22 21 21 21 20 20 20 19 19 19 19 19 19 19 19 19 19 20 20 20 20 20 20 20 20 20 19 19 20
23 21 23 23 25 26 25 24 24 23 23 23 21 22 22 22 22 21 22 22 21 21 21 21 21 20 21 21 20 19 19 19 19 19 19 19 19 19 19 19 20 20 19 20 20 20 20 19 20
24 22 23 23 24 26 25 23 23 22 22 23 22 22 21 20 21 21 22 22 21 21 20 20 21 21 20 20 20 20 19 19 18 18 18 18 19 19 19 19 19 19 19 19 19 20 19 19 19
20 21 23 24 23 26 25 24 22 23 22 21 21 21 21 20 20 22 22 22 21 21 20 20 20 20 20 20 20 19 19 19 19 19 19 18 19 20 19 19 18 18 18 18 18 19 19 19 19
22 21 22 24 24 26 23 24 22 21 21 20 19 20 19 20 21 22 20 19 20 20 20 19 20 20 21 20 19 19 19 18 18 19 18 18 18 18 18 18 18 17 18 17 17 17 18 19 19
23 22 24 24 23 25 24 25 22 22 21 20 19 18 19 20 20 20 19 18 18 18 18 19 19 19 19 20 19 18 18 18 18 18 18 18 18 18 17 17 17 18 18 18 18 18 18 18 19
24 25 24 26 25 24 23 22 22 20 21 20 19 18 18 18 18 18 18 18 18 18 18 19 19 19 19 19 18 18 18 18 18 18 18 18 18 17 17 17 17 17 17 16 17 17 17 18 18
27 25 25 24 24 24 24 21 22 21 22 20 17 17 17 16 16 17 17 18 18 19 19 19 19 19 19 19 18 18 18 18 17 17 17 17 17 16 16 16 16 16 16 16 16 16 16 16 16
27 25 24 22 22 21 21 21 23 20 18 16 17 17 15 15 16 17 18 18 19 19 18 19 19 19 19 19 18 17 17 17 16 16 16 16 16 16 15 15 15 15 15 15 15 16 16 16 16
24 24 23 24 23 22 23 21 21 20 16 16 16 15 14 14 16 16 17 17 18 18 18 18 18 18 18 18 17 17 17 16 16 16 15 15 15 15 15 15 15 15 15 14 14 14 15 15 15
23 25 24 23 23 23 21 22 20 18 16 16 15 14 14 14 16 16 18 18 18 18 18 18 18 18 18 17 17 16 16 16 16 15 15 15 15 14 14 14 14 14 14 14 14 14 14 14 14
23 22 23 23 22 22 23 21 22 16 16 15 14 13 14 14 16 17 17 18 18 18 18 18 18 17 17 17 17 16 16 16 15 15 15 15 14 14 14 14 13 13 13 13 13 13 13 13 14
20 23 22 22 21 22 22 22 21 15 16 15 13 13 13 13 14 16 17 18 18 18 18 18 18 17 17 17 17 16 16 16 15 15 15 14 14 14 14 13 13 13 13 13 12 13 12 13 13
23 22 22 22 22 21 21 19 19 16 15 15 13 12 13 13 14 17 17 18 18 18 18 18 18 17 17 17 16 16 16 16 15 15 15 15 14 14 14 13 13 12 12 12 12 12 12 12 12
22 22 23 23 22 21 19 18 19 16 14 14 13 12 12 13 15 16 17 17 17 17 18 18 18 17 17 17 17 16 16 16 15 15 15 14 14 14 13 13 12 12 11 11 11 11 10 11 11
23 23 22 22 22 20 20 19 19 17 16 16 15 13 13 13 13 15 16 16 17 18 18 18 17 17 17 17 17 16 16 15 15 15 14 14 14 13 12 12 12 11 11 10 10 10 9 9 10
22 22 22 22 20 20 18 19 20 19 17 17 15 14 13 13 13 12 14 16 16 17 18 18 18 17 17 16 16 16 15 15 15 15 14 13 13 12 11 11 10 10 10 9 9 9 9 8 8
22 21 22 21 20 19 19 18 18 17 16 17 15 13 13 13 13 13 14 15 17 17 17 17 17 17 17 16 16 15 15 14 14 13 13 13 12 12 11 10 9 9 9 8 8 8 8 8 7
21 20 20 19 17 18 18 17 18 17 18 17 15 13 12 12 13 13 14 17 17 17 17 17 17 16 16 16 15 14 14 13 13 13 13 12 12 11 10 9 9 8 8 8 8 8 8 8 7
19 19 16 14 15 16 17 17 18 17 17 15 16 15 13 12 12 13 15 15 16 17 17 16 16 16 15 15 14 13 13 13 13 12 11 11 10 10 9 8 8 8 7 7 7 7 7 7 7
18 17 16 17 16 17 17 17 17 17 17 16 14 13 14 13 12 12 12 14 16 16 16 16 15 15 14 14 13 13 12 12 11 11 10 9 9 8 8 7 7 7 6 6 6 6 6 6 6
18 17 15 20 17 17 16 17 18 17 15 14 14 14 14 14 12 12 12 13 14 15 15 14 14 14 13 13 12 12 11 11 10 9 9 8 7 7 6 6 6 5 5 5 5 5 4 4 4
18 17 16 15 13 15 15 17 18 16 16 14 14 13 13 13 11 11 12 13 14 14 14 14 14 13 12 12 11 11 10 10 9 8 7 7 6 6 5 5 5 5 4 4 4 4 3 3 3
18 16 16 13 18 18 15 16 16 17 17 15 13 12 12 12 11 11 12 13 14 13 13 13 12 12 11 11 11 10 10 8 8 7 6 6 6 5 5 5 4 3 3 3 3 3 2 2 3
16 16 13 13 12 15 15 16 14 16 16 14 12 11 11 10 10 10 11 11 12 12 12 11 11 11 10 10 10 9 8 7 6 6 6 5 5 5 4 3 3 2 2 2 2 3 2 2 2
16 16 14 14 15 10 9 13 15 14 14 13 12 11 11 11 10 9 9 10 10 10 10 10 10 10 9 9 8 7 6 6 6 5 5 5 4 4 3 2 2 2 2 2 2 2 3 3 3

GFSSGP_925_temp_063.txt.gz
Temp
26 26 25 25 27 26 26 27 26 26 26 24 25 26 25 24 25 25 22 23 22 21 21 20 20 20 20 19 19 19 19 19 19 19 18 19 19 19 19 19 19 19 19 19 19 19 19 20 20
27 25 25 23 26 26 27 26 26 25 25 24 25 24 25 24 24 24 23 22 21 21 21 20 20 20 20 19 19 19 19 19 18 18 18 18 19 18 18 18 18 18 19 19 19 19 19 20 20
27 25 25 26 25 27 27 26 25 24 25 25 25 24 24 24 23 24 23 22 22 21 21 20 20 20 20 19 19 19 19 19 19 18 18 18 18 18 18 18 19 18 18 19 19 19 19 19 20
26 25 25 27 27 26 27 26 25 25 25 25 24 24 24 22 23 22 23 22 21 20 20 20 20 20 20 19 19 19 19 19 19 19 19 19 19 19 19 19 20 20 19 19 19 19 19 19 19
25 24 26 26 26 26 26 25 25 26 25 24 24 24 24 23 22 23 22 22 20 20 20 20 20 20 20 20 19 20 19 19 19 19 19 19 19 19 20 20 20 20 20 20 20 20 19 18 18
25 25 27 27 26 26 26 25 25 25 24 24 24 24 24 21 20 20 21 21 21 21 20 20 20 20 20 20 20 19 19 19 19 19 18 18 19 19 19 19 19 19 19 19 20 20 20 19 18
26 25 26 25 26 26 26 25 26 24 24 24 23 24 23 22 20 20 21 21 20 20 20 19 20 20 20 20 19 19 19 19 19 19 18 18 18 18 18 18 18 18 18 18 18 19 20 19 19
22 23 24 24 25 27 25 24 23 24 24 22 22 23 23 21 19 21 21 20 20 21 20 20 20 20 20 19 19 19 18 18 19 18 18 18 19 18 18 18 18 18 18 18 17 17 17 19 19
22 25 25 25 25 27 24 25 22 22 23 22 20 21 20 19 19 20 19 18 19 20 20 19 19 20 20 20 20 18 18 18 18 18 18 18 18 18 17 17 17 16 17 18 18 18 18 19 19
25 25 26 25 25 26 24 25 23 23 22 21 21 19 19 19 20 21 20 19 18 18 19 19 18 19 19 19 19 19 18 18 18 18 18 18 18 17 17 17 17 17 17 17 17 17 17 18 18
24 27 25 25 25 25 24 23 22 23 22 22 22 19 19 19 19 19 18 19 18 18 18 19 18 19 19 18 18 18 18 18 18 18 18 17 17 17 17 17 17 17 17 17 17 17 17 17 16
27 25 25 24 24 24 24 23 23 22 24 21 21 20 19 20 19 19 17 17 17 17 18 18 18 18 18 18 18 18 18 18 17 17 17 17 17 16 16 16 16 16 16 16 16 16 16 16 16
26 25 23 22 22 22 22 22 23 22 19 19 18 19 19 19 18 17 17 17 17 18 18 18 18 18 18 18 17 17 17 17 17 17 16 16 16 15 15 15 15 15 15 15 15 15 14 14 15
24 23 23 23 23 22 23 21 22 21 18 18 19 19 18 18 18 16 16 16 17 18 18 18 18 18 18 17 17 17 17 16 16 16 15 15 15 15 15 14 14 14 14 14 14 14 14 14 14
23 25 24 23 23 23 22 23 22 20 18 19 19 18 17 17 16 18 17 17 18 18 18 18 18 17 18 17 17 16 16 16 16 16 15 15 15 15 14 14 14 14 14 14 14 14 14 13 13
23 23 25 23 22 21 23 25 23 18 19 19 18 17 17 17 17 16 17 17 18 18 18 17 17 17 17 17 16 16 16 16 15 15 15 15 14 14 14 14 13 13 13 13 13 13 12 12 12
22 25 23 24 22 22 23 24 21 17 18 19 18 17 17 17 16 16 16 17 18 18 17 17 17 17 17 16 16 16 16 16 15 15 15 15 14 14 14 13 13 13 12 12 12 11 11 11 11
23 24 22 23 22 21 21 22 21 18 18 19 18 17 17 17 17 16 16 17 17 17 17 17 17 17 16 16 16 16 16 15 15 15 15 14 14 14 14 13 13 12 12 11 11 10 10 10 10
23 23 23 23 22 22 21 20 22 20 17 18 17 17 17 17 17 15 15 16 16 16 16 17 17 17 16 16 16 16 16 15 15 15 14 14 14 14 13 13 12 12 11 11 10 9 9 10 9
22 23 23 22 21 21 20 21 21 19 18 17 18 17 17 16 17 16 15 15 16 16 16 16 17 17 17 16 16 16 16 15 15 15 14 14 13 13 12 12 11 11 10 9 9 9 8 8 8
22 22 22 22 20 20 19 21 21 19 18 18 17 17 17 17 18 17 15 14 16 16 17 17 17 17 16 16 16 16 15 15 15 14 14 13 13 12 12 11 10 10 9 8 8 8 7 8 8
22 21 21 21 21 22 19 21 20 19 19 18 17 15 16 16 16 16 16 14 16 17 17 17 17 16 16 16 16 15 15 14 14 13 13 13 12 12 11 10 9 9 8 8 7 8 7 7 8
21 19 19 19 18 19 18 20 21 18 20 19 18 16 15 15 16 16 16 15 15 17 17 17 16 16 16 16 15 15 14 14 13 12 12 12 12 11 10 9 8 8 7 7 7 7 7 7 7
17 18 16 15 17 19 18 19 21 19 19 18 18 16 15 15 15 15 14 15 16 16 16 16 15 16 15 15 14 14 13 13 12 12 11 11 10 10 9 8 8 7 6 6 6 6 6 6 6
19 18 19 20 19 20 17 18 20 18 18 16 15 15 16 15 15 14 15 14 14 15 15 15 15 15 14 14 13 13 12 11 11 10 9 9 7 7 7 7 6 6 5 5 5 5 5 5 5
18 19 19 21 20 19 16 18 20 17 16 15 14 14 15 14 14 14 13 13 14 15 15 15 14 14 13 13 12 11 11 10 10 9 8 7 7 6 6 5 5 5 5 4 4 4 4 4 4
18 18 16 16 14 17 17 18 19 17 17 15 15 15 14 14 14 14 13 12 12 13 13 14 13 13 12 11 11 11 10 9 9 8 7 7 6 5 5 5 4 4 4 4 3 3 4 4 4
18 16 18 16 19 19 18 17 20 18 17 15 14 14 13 13 13 13 12 11 11 12 12 12 12 11 11 10 10 10 9 9 8 7 6 5 5 4 4 4 4 3 3 3 3 3 3 3 3
17 17 14 15 16 19 19 20 16 17 15 15 14 13 13 13 12 12 11 10 11 11 11 11 11 10 10 10 10 9 9 7 6 5 5 5 4 4 3 3 3 3 3 3 3 3 3 3 3
16 16 16 18 17 13 15 18 15 15 14 14 13 13 12 12 12 11 10 10 10 10 10 10 10 10 9 9 8 8 7 6 5 4 4 4 3 3 3 2 2 2 2 3 3 3 3 3 3

GFSSGP_925_temp_066.txt.gz
Temp
25 25 25 27 31 32 30 30 30 30 30 29 30 30 30 29 29 28 24 24 23 23 23 22 21 20 19 19 19 19 19 20 19 19 19 19 19 19 19 19 19 19 19 19 20 19 19 19 20
25 25 26 30 32 31 30 30 30 30 29 30 29 29 30 28 29 27 27 24 23 23 23 23 21 20 20 19 19 19 19 19 18 18 18 19 18 18 18 18 18 18 19 19 19 19 19 19 19
25 25 27 32 32 31 31 30 30 29 29 29 29 29 29 27 28 28 26 24 24 23 23 22 20 20 20 19 19 19 19 19 18 18 18 18 18 18 18 18 18 18 18 19 19 19 19 19 19
27 29 32 32 31 31 32 31 30 29 28 29 29 28 28 26 27 27 25 24 24 23 23 21 20 20 20 19 19 20 19 19 19 18 18 18 18 18 18 18 19 19 19 20 19 19 18 19 19
28 31 32 31 31 31 31 32 30 30 30 29 29 28 28 26 25 25 24 24 24 23 23 22 20 20 20 19 19 19 19 19 19 19 18 18 18 18 19 19 18 18 19 20 20 19 18 18 18
31 31 32 32 31 31 31 31 30 30 30 28 29 29 28 25 25 25 24 24 24 23 23 22 20 20 20 20 19 19 19 19 19 19 18 18 18 18 18 18 18 18 17 18 19 18 19 19 18
31 32 32 32 31 30 31 31 31 31 30 29 29 29 28 27 25 24 25 24 24 23 23 23 22 21 20 19 19 19 19 19 19 19 18 19 19 18 18 18 18 18 18 18 17 17 17 18 19
30 31 31 31 31 31 30 30 29 30 30 27 28 29 28 27 24 24 24 24 24 23 23 23 22 22 21 19 19 18 18 18 19 19 19 19 18 18 17 18 17 17 18 17 18 19 19 19 19
28 31 31 31 30 31 29 29 27 27 28 27 27 27 26 24 23 24 24 22 23 23 23 23 22 21 19 18 17 18 19 18 19 18 18 18 18 17 17 17 17 17 16 17 17 18 19 19 19
30 31 32 32 32 31 29 30 28 28 28 27 26 24 24 23 24 25 25 24 24 23 22 22 22 21 20 18 18 19 19 18 18 18 18 19 18 17 17 17 18 17 17 17 17 17 17 18 19
30 31 31 30 30 31 30 29 28 29 28 30 28 26 24 24 25 26 26 25 25 23 21 21 20 20 19 19 19 19 19 18 18 18 18 18 18 17 17 17 17 17 17 17 17 18 18 18 18
30 29 30 29 28 29 29 29 28 28 29 27 28 27 25 25 25 25 25 24 23 21 20 20 19 19 19 18 18 18 18 18 18 17 17 18 18 17 17 17 16 16 16 17 17 17 17 18 18
30 29 28 28 27 28 28 28 29 27 26 25 26 25 25 26 25 24 23 23 22 21 19 19 19 19 19 18 18 18 18 18 17 17 16 17 16 17 16 16 16 16 16 16 16 17 17 17 17
28 29 27 27 27 27 28 27 26 27 24 25 24 25 25 25 24 23 22 22 22 21 20 19 19 19 19 18 18 17 17 16 16 16 16 16 16 16 16 16 16 16 15 16 16 16 16 17 17
27 28 27 27 27 27 27 27 27 26 25 25 25 25 25 24 23 23 23 22 22 21 19 19 18 19 19 18 17 17 16 16 16 16 16 15 15 16 16 16 15 15 15 15 15 15 15 16 16
27 28 28 26 27 25 26 29 28 25 25 25 25 26 24 24 23 23 22 22 21 20 20 18 17 18 18 18 17 17 16 16 16 16 16 15 15 15 15 15 15 14 14 14 14 14 14 15 15
26 26 27 28 26 26 26 29 26 24 25 26 26 25 24 24 23 22 21 21 21 20 19 18 18 18 18 17 17 17 16 16 16 16 16 15 14 14 15 14 14 13 13 13 13 13 14 14 14
26 26 28 28 26 25 26 27 27 24 24 25 26 25 24 24 23 22 21 20 20 20 19 19 18 18 17 17 17 16 16 16 16 16 15 15 14 14 14 14 14 13 13 13 13 13 13 13 14
27 26 26 26 25 26 27 27 27 28 24 24 25 25 24 24 23 22 20 20 19 19 19 19 18 18 17 17 17 17 17 16 16 15 14 14 14 14 13 13 13 13 13 12 12 12 12 13 13
27 26 27 25 24 25 27 26 28 25 24 23 24 25 25 24 23 22 20 20 19 19 19 19 18 17 17 17 17 18 18 17 16 14 14 13 13 13 13 13 12 12 12 12 12 11 11 11 12
26 26 26 26 24 24 24 27 26 24 24 23 23 23 24 24 23 22 21 20 19 19 19 19 19 18 17 16 16 15 15 15 15 15 14 13 13 12 12 12 12 12 11 11 11 11 10 11 11
26 24 24 24 25 26 24 26 27 25 24 24 23 22 22 22 23 23 21 20 19 19 19 18 18 18 17 15 15 16 17 17 17 15 14 13 12 12 11 11 11 11 11 11 11 10 10 10 10
25 23 24 23 24 24 24 24 27 24 25 24 23 21 20 20 22 23 21 21 20 19 18 17 17 17 16 16 15 15 15 16 15 14 13 13 13 12 11 11 10 10 10 10 10 9 10 10 10
22 23 22 22 23 24 24 23 26 24 23 23 22 21 20 20 20 21 21 20 19 17 16 16 16 16 16 15 15 14 14 14 14 14 13 13 12 12 11 10 10 10 9 9 9 8 8 8 9
23 24 25 25 24 25 21 22 25 22 21 20 19 20 20 20 20 20 20 19 18 17 16 16 15 16 16 15 14 14 13 13 13 13 12 12 11 11 10 10 9 9 9 8 8 7 7 8 8
24 24 26 24 25 25 20 23 24 21 20 20 19 20 20 20 20 19 19 18 18 17 17 16 16 16 15 14 13 12 12 12 12 11 11 10 10 10 9 8 8 8 8 8 7 7 7 7 7
22 23 22 23 21 23 25 23 22 21 21 20 20 20 19 19 19 18 18 17 17 17 16 16 15 14 13 13 13 13 12 11 11 10 10 9 9 9 8 8 7 7 7 7 7 6 6 6 7
22 21 22 23 23 23 24 23 25 21 21 20 20 19 18 19 19 18 17 16 16 15 14 14 14 14 13 12 12 11 11 10 10 9 9 9 8 8 7 7 7 7 6 6 6 6 6 6 6
21 22 21 22 22 24 24 25 22 22 21 20 19 18 18 18 18 18 17 16 14 14 14 13 13 13 12 11 11 11 10 10 9 9 8 8 8 7 7 7 6 6 6 6 6 6 6 6 6
20 22 23 23 22 21 21 23 20 20 20 19 18 17 17 17 17 17 16 16 15 15 13 13 12 12 11 10 10 10 9 9 8 8 8 8 7 7 7 6 6 6 5 5 5 5 6 5 5

GFSSGP_925_temp_069.txt.gz
Temp
25 26 28 28 30 33 32 31 33 32 32 32 33 33 32 32 31 29 26 26 26 25 24 22 20 20 19 19 19 19 19 19 19 19 19 19 19 19 18 18 19 19 19 19 19 19 19 19 19
27 28 28 32 31 31 32 33 32 32 32 32 32 32 32 30 30 28 28 26 26 26 25 23 21 20 19 19 19 19 19 19 19 19 19 18 19 18 18 18 18 18 18 18 19 19 19 19 19
27 28 31 33 34 31 32 33 32 31 32 32 31 32 32 29 30 30 27 26 26 26 25 21 20 20 19 19 19 19 19 19 19 18 18 18 18 18 18 18 18 18 18 19 19 19 19 19 19
29 31 33 32 33 33 34 33 32 31 31 32 32 31 31 30 30 29 27 27 27 26 24 21 20 20 19 19 19 19 19 19 18 18 18 18 18 18 18 18 18 18 18 18 19 19 18 19 19
30 32 33 33 33 34 34 34 33 32 32 32 32 31 30 28 28 28 27 27 27 26 24 22 20 20 19 19 19 19 18 19 19 19 18 18 18 18 18 18 18 18 18 18 18 18 18 18 19
31 33 33 33 33 34 34 34 34 33 33 32 31 32 30 28 28 27 27 27 27 26 25 22 20 20 19 19 19 19 19 19 19 19 19 18 18 18 18 18 18 18 18 18 17 17 18 18 19
30 33 33 34 33 33 33 34 33 33 33 32 33 32 30 29 28 27 27 27 27 26 26 23 22 21 19 19 19 19 19 19 19 18 19 18 18 18 18 18 17 18 18 18 17 19 19 19 20
31 32 33 33 33 33 34 33 33 33 33 31 32 32 30 30 28 27 28 27 27 26 26 23 23 21 20 19 19 19 19 19 19 19 19 18 18 18 18 17 16 16 17 17 17 18 19 19 19
31 31 32 33 33 33 33 32 31 31 32 31 31 31 31 28 28 28 28 28 27 27 27 25 23 22 20 19 18 19 19 19 19 19 20 20 19 19 18 18 18 18 18 18 17 18 19 20 20
31 31 33 35 34 34 32 33 31 31 31 31 30 29 28 27 27 28 28 27 27 27 26 24 23 21 21 20 18 19 19 20 20 20 20 20 19 18 18 18 18 18 18 18 18 19 19 20 20
32 31 34 33 34 34 32 33 32 31 31 32 31 30 28 27 28 28 28 28 28 27 25 25 25 22 22 20 20 21 21 20 20 20 20 20 20 20 19 19 18 18 18 19 19 19 19 19 19
31 33 33 32 31 33 32 33 31 31 32 31 32 32 29 28 29 28 29 29 28 26 24 23 23 23 22 21 21 21 21 20 20 19 19 19 19 19 19 19 18 18 18 18 18 18 19 19 19
30 32 31 31 30 32 32 31 31 31 32 30 30 30 29 29 29 29 28 28 26 24 23 23 22 22 21 21 21 20 20 20 19 19 18 19 18 18 18 18 18 18 17 18 18 18 18 19 19
30 31 30 30 30 30 30 30 29 31 30 29 29 29 29 29 28 28 27 26 25 24 22 22 22 22 21 21 20 20 19 19 18 18 18 18 18 18 18 18 18 17 17 17 17 18 17 18 18
29 29 28 29 30 30 30 29 29 31 29 29 29 29 29 28 27 27 26 25 25 24 23 22 22 22 21 20 19 19 19 18 18 18 18 17 17 17 17 17 17 16 16 16 16 16 16 17 17
27 28 28 29 28 27 27 30 31 29 29 29 29 29 28 28 27 26 25 25 25 23 22 21 21 21 21 20 19 19 19 18 18 18 17 17 16 17 17 16 16 15 15 15 15 15 15 16 16
28 28 27 26 28 28 26 29 27 28 28 29 29 30 28 27 27 26 25 25 24 23 22 21 20 21 20 20 19 19 19 19 18 18 17 16 16 16 16 16 15 15 15 15 15 15 15 15 15
28 28 28 27 26 27 28 27 30 28 28 28 29 29 29 27 27 26 24 24 23 23 22 21 21 20 20 19 19 19 18 18 18 18 17 17 16 15 15 15 15 15 15 14 14 14 14 14 15
29 29 28 26 26 26 28 29 30 30 28 26 27 28 29 28 27 25 24 23 23 22 22 21 21 20 20 19 19 19 19 18 18 17 17 16 16 15 15 15 15 14 14 14 13 13 13 13 14
29 29 28 28 25 25 25 27 29 30 28 27 27 27 28 28 27 25 24 23 22 22 22 22 21 20 20 19 19 20 20 19 18 17 16 15 15 15 14 14 14 14 14 13 13 13 12 12 13
28 28 28 27 25 25 25 26 29 27 26 26 26 26 26 28 27 26 24 23 22 22 21 21 21 20 19 19 19 18 18 17 16 16 16 15 15 14 14 14 14 13 13 13 12 12 12 12 12
27 28 26 27 26 25 26 26 29 28 27 27 26 25 25 25 27 26 24 23 22 22 21 21 21 21 19 19 18 18 18 18 19 18 17 16 15 14 14 13 13 13 12 12 12 12 12 12 11
27 26 27 26 27 27 27 25 29 27 27 26 25 24 23 24 25 25 24 23 22 22 21 20 20 20 20 19 17 17 17 18 18 17 16 15 15 14 14 13 13 12 12 12 11 11 11 11 11
25 26 26 26 26 25 28 26 29 27 25 24 24 23 22 22 24 25 24 23 22 21 20 19 19 19 19 18 18 17 16 17 17 16 16 15 15 14 14 13 12 12 11 11 10 10 10 10 10
25 26 26 26 25 26 26 25 27 24 23 22 23 22 22 22 22 23 23 21 21 20 19 18 18 18 18 18 17 17 16 15 15 15 15 14 14 13 13 12 11 11 10 10 9 9 9 9 9
25 27 27 26 27 28 24 25 26 23 23 22 22 22 22 22 22 22 22 21 21 20 19 19 18 18 18 18 17 16 15 14 14 14 13 13 12 12 11 11 10 10 10 9 9 9 9 9 9
25 24 25 26 26 26 28 26 24 23 23 23 22 22 21 21 21 21 20 20 19 19 18 18 18 18 17 16 16 15 15 14 13 12 12 12 11 11 11 10 9 9 9 9 9 8 8 8 8
24 24 24 25 25 25 27 27 27 23 23 23 22 21 21 21 21 20 19 18 18 17 17 16 16 16 15 15 15 14 14 13 13 12 12 11 11 10 10 9 9 9 8 8 8 8 8 8 8
23 24 24 24 25 25 26 26 26 25 24 23 22 21 21 20 20 20 19 18 17 17 16 16 16 15 15 14 13 13 13 12 12 11 11 11 10 10 10 9 9 9 8 8 8 8 8 7 7
23 25 25 24 25 25 24 24 24 24 23 23 21 20 20 19 19 19 19 18 18 18 17 16 15 14 14 13 12 12 12 11 11 11 11 10 10 9 9 9 8 8 8 8 7 7 7 7 7

GFSSGP_925_temp_075.txt.gz
Temp
28 27 25 25 24 23 27 29 28 29 29 29 28 27 25 25 25 23 24 24 22 22 21 20 19 19 19 19 19 19 19 19 19 19 19 18 18 18 18 18 18 18 19 19 19 19 19 19 19
28 28 26 23 23 26 26 28 27 28 28 28 28 27 26 25 25 24 24 24 23 22 21 20 19 19 19 19 19 19 19 18 18 18 18 18 18 18 18 18 18 18 18 18 19 19 19 19 19
27 27 24 23 25 25 27 27 27 28 29 30 29 28 27 25 25 25 26 24 21 22 21 20 19 19 19 19 19 18 18 18 18 18 18 18 18 18 18 18 18 18 18 18 19 19 18 19 19
27 25 24 25 27 27 29 26 27 29 30 30 27 25 26 27 26 26 26 24 22 22 21 20 20 19 19 18 18 18 18 18 18 18 18 18 18 18 18 18 18 18 18 18 18 18 19 19 20
28 22 24 25 27 27 29 28 28 28 29 30 28 25 25 26 27 26 26 24 24 22 21 21 19 19 19 19 18 18 18 18 18 18 18 18 18 18 18 18 18 18 18 17 17 17 18 20 20
24 24 25 23 24 27 29 28 29 28 28 28 26 25 24 27 27 27 26 24 24 23 22 21 20 19 19 19 19 19 19 19 19 19 18 18 18 18 18 18 18 18 17 18 19 19 19 19 20
25 24 24 25 25 27 29 28 27 27 27 29 26 25 24 25 27 27 26 25 24 24 23 22 21 20 19 19 19 19 19 19 19 18 18 18 17 17 18 18 18 18 18 19 19 19 19 19 19
24 24 26 25 24 27 30 30 29 29 28 30 27 24 23 25 27 27 27 24 24 23 22 21 21 20 20 19 19 19 20 19 20 19 18 19 18 18 19 18 18 18 18 18 19 19 19 19 19
28 24 24 26 27 29 29 29 30 29 28 29 28 26 26 27 27 27 26 25 23 21 21 21 21 20 21 20 19 19 20 20 20 19 18 19 19 19 18 18 18 18 18 18 18 19 19 19 19
25 23 26 29 27 30 30 29 28 29 27 27 25 25 26 27 27 26 26 25 22 21 21 21 21 20 21 20 20 20 20 20 20 20 19 19 19 18 18 18 18 18 18 18 18 18 18 19 19
25 25 27 29 29 28 29 28 29 26 27 26 25 24 25 26 26 26 26 26 24 23 21 21 21 20 21 21 20 20 20 20 20 20 20 19 19 18 18 18 17 17 17 18 18 18 18 18 18
26 25 26 27 27 28 29 28 28 28 28 27 24 24 24 24 24 25 26 27 23 23 22 21 21 20 21 21 20 20 20 20 20 19 19 19 18 18 18 17 17 17 17 17 17 17 17 17 17
25 23 24 28 26 26 28 28 29 28 26 25 25 24 23 23 24 27 27 25 24 23 22 22 21 21 21 20 20 20 20 19 19 19 18 18 18 18 17 17 17 17 17 17 17 16 16 17 17
25 24 25 26 25 24 27 27 29 28 25 25 24 23 22 23 24 26 25 23 23 23 22 21 21 21 21 21 20 20 19 19 18 18 18 18 18 17 17 17 16 16 16 16 16 16 16 16 16
25 25 25 25 24 23 23 25 25 27 26 25 25 22 23 23 25 25 25 23 23 23 22 22 21 21 21 20 20 19 19 18 18 18 18 17 17 17 17 16 16 16 16 15 15 15 15 15 15
24 24 23 24 24 23 24 25 24 25 27 27 25 23 23 24 25 25 24 23 23 22 22 22 22 21 20 20 19 19 18 18 18 17 17 17 16 16 16 16 15 15 15 15 15 15 15 14 14
23 21 23 24 24 22 22 24 23 22 24 24 24 23 23 23 23 25 25 23 22 22 22 22 21 21 20 19 19 18 18 18 18 17 17 17 16 16 16 15 15 15 15 15 14 14 14 13 13
21 23 23 22 22 23 21 21 21 21 24 24 25 24 22 22 22 24 24 23 23 22 22 22 21 20 20 19 19 18 18 18 18 17 17 17 16 16 16 15 15 15 14 14 14 13 13 13 12
23 23 23 22 22 22 20 22 22 24 24 23 24 23 23 21 22 23 23 23 22 22 22 21 20 20 20 19 19 19 18 18 18 17 17 17 16 16 15 15 14 14 14 13 13 13 12 12 12
24 23 22 21 23 22 21 22 23 23 25 23 23 23 23 21 19 21 22 22 22 21 21 21 21 20 20 19 19 19 18 18 18 18 17 17 16 16 15 15 14 14 13 13 13 12 12 12 12
24 22 20 21 21 23 22 21 22 24 23 23 22 22 22 22 19 18 20 22 22 21 21 21 21 20 20 19 19 18 18 17 17 17 17 17 16 16 15 15 14 14 13 13 12 12 12 11 11
24 25 25 22 21 20 22 19 22 21 22 20 19 19 20 20 20 19 19 20 22 22 21 21 21 20 20 19 19 18 18 18 18 18 17 17 16 15 15 15 14 14 13 13 12 12 11 11 10
22 23 23 23 22 21 22 20 19 20 20 20 19 19 19 19 20 19 19 21 22 22 22 21 21 20 20 19 19 19 18 17 17 16 16 16 16 15 15 14 14 13 13 12 12 11 11 10 10
22 22 20 20 19 19 20 20 20 20 19 18 18 19 19 18 18 17 20 21 21 21 21 21 20 19 19 19 19 18 18 17 17 16 16 15 15 15 14 13 13 12 12 11 11 10 10 10 9
21 19 18 19 18 18 21 20 20 19 19 17 17 17 17 16 15 15 15 17 19 19 19 19 19 19 18 18 18 18 18 17 16 15 15 14 13 13 13 12 12 12 11 11 10 10 9 9 9
20 19 18 20 18 20 23 20 19 19 17 17 17 16 16 15 15 15 16 17 18 18 18 18 18 18 18 18 17 17 16 15 15 14 14 13 13 12 12 12 11 11 10 10 9 9 9 9 8
21 21 21 21 22 19 19 19 19 18 18 16 16 16 15 15 14 14 14 16 16 16 17 17 17 16 16 16 16 15 14 14 14 13 13 12 12 11 11 11 11 10 10 9 9 9 8 8 8
22 22 21 18 21 21 20 18 17 17 17 16 16 15 15 14 14 13 14 16 16 16 16 16 16 16 15 15 15 14 13 13 12 12 12 11 11 11 10 10 9 9 9 9 8 8 8 8 8
20 20 21 19 18 19 19 18 18 17 17 16 15 15 14 14 13 13 15 16 17 16 16 16 15 15 15 14 14 13 13 12 12 11 11 10 10 10 9 9 8 8 8 8 7 7 7 7 7
21 21 20 17 20 18 15 16 17 17 17 17 15 15 14 14 13 13 14 15 15 15 15 15 15 15 14 14 13 12 11 11 11 10 10 9 9 9 8 8 7 7 7 7 7 6 6 6 5